BG4WDV-11 Weather Reports


time (UTC)temp
F
wind
direction
speed
knots
gust
knots
rain 1hr
in
rain 24hr
in
rain mn
in
humidity
%
barometer
mb
20260508065059 78 90 2.6 5.2 0.00 0.00 0.00 31 1017.0
20260508064959 78 180 2.6 5.2 0.00 0.00 0.00 31 1017.0
20260508064858 78 180 2.6 5.2 0.00 0.00 0.00 30 1017.0
20260508064758 79 90 3.5 5.2 0.00 0.00 0.00 30 1016.9
20260508064659 79 180 2.6 5.2 0.00 0.00 0.00 30 1017.1
20260508064558 79 90 1.7 5.2 0.00 0.00 0.00 30 1016.8
20260508064458 79 180 2.6 5.2 0.00 0.00 0.00 31 1017.0
20260508064358 79 90 2.6 5.2 0.00 0.00 0.00 31 1016.9
20260508064259 79 180 1.7 3.5 0.00 0.00 0.00 31 1016.9
20260508064158 79 90 0.0 3.5 0.00 0.00 0.00 31 1017.1
20260508064058 79 90 0.9 3.5 0.00 0.00 0.00 31 1016.9
20260508063959 79 0 1.7 4.3 0.00 0.00 0.00 31 1016.9
20260508063859 79 180 1.7 4.3 0.00 0.00 0.00 31 1017.0
20260508063758 79 180 0.9 4.3 0.00 0.00 0.00 32 1017.1
20260508063658 79 45 0.9 4.3 0.00 0.00 0.00 32 1017.1
20260508063559 79 45 2.6 4.3 0.00 0.00 0.00 31 1017.1
20260508063459 79 45 1.7 4.3 0.00 0.00 0.00 31 1017.0
20260508063358 79 45 0.9 5.2 0.00 0.00 0.00 31 1017.1
20260508063258 79 315 0.0 5.2 0.00 0.00 0.00 31 1017.2
20260508063159 79 180 0.9 5.2 0.00 0.00 0.00 31 1017.2
20260508063058 79 90 0.9 5.2 0.00 0.00 0.00 30 1017.1
20260508062958 78 45 0.0 5.2 0.00 0.00 0.00 30 1017.2
20260508062858 78 180 0.0 5.2 0.00 0.00 0.00 29 1017.2
20260508062759 78 225 1.7 5.2 0.00 0.00 0.00 29 1017.2
20260508062658 78 180 2.6 5.2 0.00 0.00 0.00 29 1017.2
20260508062558 78 180 2.6 5.2 0.00 0.00 0.00 29 1017.2
20260508062458 79 180 2.6 5.2 0.00 0.00 0.00 29 1017.3
20260508062359 79 180 1.7 4.3 0.00 0.00 0.00 29 1017.3
20260508062258 79 180 1.7 4.3 0.00 0.00 0.00 28 1017.4
20260508062158 80 90 1.7 4.3 0.00 0.00 0.00 29 1017.5
20260508062059 80 90 2.6 4.3 0.00 0.00 0.00 30 1017.4
20260508061958 80 90 2.6 4.3 0.00 0.00 0.00 30 1017.4
20260508061858 80 180 0.9 4.3 0.00 0.00 0.00 30 1017.3
20260508061758 80 90 0.0 4.3 0.00 0.00 0.00 30 1017.3
20260508061659 79 0 0.0 4.3 0.00 0.00 0.00 31 1017.3
20260508061558 79 45 0.0 4.3 0.00 0.00 0.00 31 1017.5
20260508061458 79 90 0.9 4.3 0.00 0.00 0.00 31 1017.4
20260508061358 79 180 1.7 4.3 0.00 0.00 0.00 30 1017.3
20260508061258 80 90 0.9 2.6 0.00 0.00 0.00 31 1017.4
20260508061158 80 0 0.9 5.2 0.00 0.00 0.00 31 1017.3
20260508061058 80 90 0.9 5.2 0.00 0.00 0.00 31 1017.4
20260508060959 80 225 0.9 5.2 0.00 0.00 0.00 30 1017.3
20260508060858 79 0 0.0 5.2 0.00 0.00 0.00 30 1017.4
20260508060758 79 180 0.0 5.2 0.00 0.00 0.00 29 1017.5
20260508060658 79 180 0.9 5.2 0.00 0.00 0.00 29 1017.4
20260508060558 79 180 1.7 5.2 0.00 0.00 0.00 29 1017.5
20260508060458 79 1 5.2 0.0 0.00 0.00 0.00 30 1017.6
20260508060358 79 0 2.6 5.2 0.00 0.00 0.00 30 1017.6
20260508060258 78 315 2.6 5.2 0.00 0.00 0.00 31 1017.6
20260508060158 79 90 2.6 4.3 0.00 0.00 0.00 30 1017.5
20260508060058 79 90 1.7 5.2 0.00 0.00 0.00 30 1017.7
20260508055958 79 180 0.0 5.2 0.00 0.00 0.00 31 1017.6
20260508055858 78 180 0.0 5.2 0.00 0.00 0.00 30 1017.6
20260508055758 79 90 0.9 5.2 0.00 0.00 0.00 30 1017.6
20260508055658 79 225 1.7 5.2 0.00 0.00 0.00 30 1017.6
20260508055558 79 0 0.9 5.2 0.00 0.00 0.00 29 1017.6
20260508055458 79 90 1.7 5.2 0.00 0.00 0.00 29 1017.6
20260508055358 79 180 2.6 5.2 0.00 0.00 0.00 29 1017.7
20260508055258 79 90 2.6 5.2 0.00 0.00 0.00 29 1017.7
20260508055158 79 180 0.9 5.2 0.00 0.00 0.00 30 1017.5
20260508055058 79 0 0.0 4.3 0.00 0.00 0.00 30 1017.6
20260508054958 79 315 0.0 4.3 0.00 0.00 0.00 30 1017.6
20260508054858 79 0 0.9 4.3 0.00 0.00 0.00 30 1017.7
20260508054758 79 180 1.7 4.3 0.00 0.00 0.00 31 1017.6
20260508054658 79 180 1.7 4.3 0.00 0.00 0.00 31 1017.6
20260508054558 79 180 1.7 4.3 0.00 0.00 0.00 31 1017.6
20260508054458 79 90 1.7 4.3 0.00 0.00 0.00 31 1017.7
20260508054358 79 90 0.9 4.3 0.00 0.00 0.00 33 1017.8
20260508054258 79 90 0.0 4.3 0.00 0.00 0.00 33 1017.7
20260508054158 79 225 0.0 4.3 0.00 0.00 0.00 32 1017.8
20260508054058 79 0 0.9 4.3 0.00 0.00 0.00 32 1017.7
20260508053958 79 45 0.0 4.3 0.00 0.00 0.00 31 1017.6
20260508053858 79 225 0.9 4.3 0.00 0.00 0.00 31 1017.7
20260508053758 79 0 0.9 4.3 0.00 0.00 0.00 31 1017.6
20260508053658 79 180 1.7 4.3 0.00 0.00 0.00 32 1017.8
20260508053558 79 90 1.7 4.3 0.00 0.00 0.00 32 1017.9
20260508053458 79 180 1.7 4.3 0.00 0.00 0.00 32 1017.7
20260508053358 79 180 1.7 3.5 0.00 0.00 0.00 32 1017.6
20260508053258 79 90 0.9 3.5 0.00 0.00 0.00 32 1017.8
20260508053158 79 45 0.9 3.5 0.00 0.00 0.00 32 1017.8
20260508053058 79 0 1.7 3.5 0.00 0.00 0.00 32 1017.8
20260508052958 79 180 1.7 3.5 0.00 0.00 0.00 31 1017.8
20260508052858 80 90 1.7 3.5 0.00 0.00 0.00 31 1017.7
20260508052758 80 180 0.9 3.5 0.00 0.00 0.00 32 1017.8
20260508052658 79 45 0.9 3.5 0.00 0.00 0.00 32 1017.7
20260508052558 79 45 0.9 3.5 0.00 0.00 0.00 31 1017.9
20260508052459 79 90 0.0 3.5 0.00 0.00 0.00 31 1017.7
20260508052358 79 225 0.0 3.5 0.00 0.00 0.00 31 1017.9
20260508052258 79 180 0.9 3.5 0.00 0.00 0.00 31 1017.9
20260508052158 79 225 0.9 3.5 0.00 0.00 0.00 31 1017.9
20260508052058 79 180 1.7 3.5 0.00 0.00 0.00 31 1018.0
20260508051958 79 45 0.9 3.5 0.00 0.00 0.00 30 1017.8
20260508051858 79 90 0.9 3.5 0.00 0.00 0.00 31 1018.0
20260508051759 79 90 0.9 3.5 0.00 0.00 0.00 31 1018.0
20260508051658 79 180 0.9 3.5 0.00 0.00 0.00 31 1018.0
20260508051558 79 90 0.9 3.5 0.00 0.00 0.00 32 1017.9
20260508051458 79 90 0.9 5.2 0.00 0.00 0.00 32 1018.1
20260508051359 78 90 0.0 5.2 0.00 0.00 0.00 32 1017.9
20260508051258 78 180 0.0 5.2 0.00 0.00 0.00 32 1018.0
20260508051158 78 45 0.9 5.2 0.00 0.00 0.00 32 1018.0
20260508051058 78 180 0.0 5.2 0.00 0.00 0.00 32 1018.0
20260508050959 78 90 0.0 5.2 0.00 0.00 0.00 32 1017.9
20260508050858 78 0 0.9 5.2 0.00 0.00 0.00 32 1017.9
20260508050758 78 45 1.7 5.2 0.00 0.00 0.00 31 1017.9
20260508050658 79 90 2.6 5.2 0.00 0.00 0.00 31 1018.0
20260508050558 79 0 2.6 5.2 0.00 0.00 0.00 32 1018.0
20260508050458 79 180 1.7 4.3 0.00 0.00 0.00 32 1017.9
20260508050358 79 45 0.9 4.3 0.00 0.00 0.00 33 1017.9
20260508050258 79 45 1.7 4.3 0.00 0.00 0.00 33 1017.9
20260508050158 79 90 1.7 4.3 0.00 0.00 0.00 33 1018.0
20260508050058 79 90 0.0 4.3 0.00 0.00 0.00 34 1017.9
20260508045958 78 180 0.9 4.3 0.00 0.00 0.00 33 1017.9
20260508045858 78 0 0.0 4.3 0.00 0.00 0.00 32 1017.8
20260508045758 78 180 0.0 4.3 0.00 0.00 0.00 32 1017.9
20260508045658 78 45 0.0 4.3 0.00 0.00 0.00 32 1017.9
20260508045558 78 0 0.9 4.3 0.00 0.00 0.00 33 1018.1
20260508045458 78 180 1.7 4.3 0.00 0.00 0.00 33 1017.8
20260508045358 78 180 1.7 4.3 0.00 0.00 0.00 34 1017.9
20260508045258 78 180 1.7 4.3 0.00 0.00 0.00 34 1017.9
20260508045158 78 180 1.7 4.3 0.00 0.00 0.00 35 1018.0
20260508045058 78 0 0.9 4.3 0.00 0.00 0.00 35 1018.0
20260508044958 77 45 0.9 4.3 0.00 0.00 0.00 35 1017.9
20260508044858 77 90 0.9 4.3 0.00 0.00 0.00 35 1018.0
20260508044758 77 45 0.9 4.3 0.00 0.00 0.00 35 1017.9
20260508044658 77 180 0.9 4.3 0.00 0.00 0.00 35 1018.1
20260508044558 77 180 1.7 4.3 0.00 0.00 0.00 34 1018.0
20260508044458 77 180 2.6 4.3 0.00 0.00 0.00 34 1018.0
20260508044358 77 90 2.6 4.3 0.00 0.00 0.00 34 1018.0
20260508044258 77 90 1.7 4.3 0.00 0.00 0.00 34 1018.0
20260508044158 76 180 1.7 4.3 0.00 0.00 0.00 34 1018.1
20260508044058 77 180 2.6 4.3 0.00 0.00 0.00 34 1018.1
20260508043958 77 90 2.6 4.3 0.00 0.00 0.00 35 1018.1
20260508043858 77 180 1.7 5.2 0.00 0.00 0.00 35 1018.1
20260508043758 77 180 0.9 5.2 0.00 0.00 0.00 35 1018.2
20260508043658 77 180 0.9 5.2 0.00 0.00 0.00 35 1018.1
20260508043558 77 180 1.7 5.2 0.00 0.00 0.00 35 1018.3
20260508043458 77 180 0.9 5.2 0.00 0.00 0.00 36 1018.2
20260508043358 76 0 0.9 5.2 0.00 0.00 0.00 36 1018.2
20260508043258 76 90 0.9 5.2 0.00 0.00 0.00 36 1018.3
20260508043158 76 45 1.7 5.2 0.00 0.00 0.00 35 1018.2
20260508043058 76 90 2.6 5.2 0.00 0.00 0.00 36 1018.2
20260508042958 76 90 2.6 5.2 0.00 0.00 0.00 35 1018.2
20260508042858 76 180 1.7 4.3 0.00 0.00 0.00 35 1018.4
20260508042758 76 180 1.7 4.3 0.00 0.00 0.00 35 1018.2
20260508042658 76 90 1.7 4.3 0.00 0.00 0.00 35 1018.3
20260508042558 76 90 0.9 4.3 0.00 0.00 0.00 35 1018.3
20260508042458 76 180 0.9 4.3 0.00 0.00 0.00 36 1018.2
20260508042358 76 180 1.7 4.3 0.00 0.00 0.00 36 1018.3
20260508042258 76 180 1.7 4.3 0.00 0.00 0.00 36 1018.4
20260508042158 76 45 0.9 5.2 0.00 0.00 0.00 36 1018.4
20260508042058 75 45 1.7 5.2 0.00 0.00 0.00 36 1018.2
20260508041958 75 0 1.7 5.2 0.00 0.00 0.00 37 1018.3
20260508041858 75 45 1.7 5.2 0.00 0.00 0.00 37 1018.4
20260508041758 75 45 0.9 5.2 0.00 0.00 0.00 36 1018.4
20260508041658 75 45 0.9 5.2 0.00 0.00 0.00 35 1018.3
20260508041558 75 45 0.0 5.2 0.00 0.00 0.00 35 1018.4
20260508041458 75 225 0.9 5.2 0.00 0.00 0.00 35 1018.4
20260508041358 76 180 2.6 5.2 0.00 0.00 0.00 35 1018.4
20260508041258 76 90 2.6 5.2 0.00 0.00 0.00 36 1018.3
20260508041157 76 180 2.6 5.2 0.00 0.00 0.00 36 1018.4
20260508041058 76 180 1.7 5.2 0.00 0.00 0.00 37 1018.5
20260508040958 76 0 0.9 5.2 0.00 0.00 0.00 36 1018.4
20260508040857 76 0 0.0 5.2 0.00 0.00 0.00 36 1018.4
20260508040758 76 180 0.9 5.2 0.00 0.00 0.00 36 1018.5
20260508040658 77 180 1.7 5.2 0.00 0.00 0.00 35 1018.5
20260508040558 77 90 2.6 5.2 0.00 0.00 0.00 36 1018.3
20260508040457 77 180 1.7 5.2 0.00 0.00 0.00 35 1018.6
20260508040358 77 315 0.0 5.2 0.00 0.00 0.00 36 1018.5
20260508040258 77 0 0.0 5.2 0.00 0.00 0.00 35 1018.8
20260508040158 77 90 0.9 5.2 0.00 0.00 0.00 34 1018.7
20260508040058 77 180 2.6 5.2 0.00 0.00 0.00 34 1018.8
20260508035958 77 180 2.6 5.2 0.00 0.00 0.00 35 1018.6
20260508035858 77 180 2.6 4.3 0.00 0.00 0.00 34 1018.7
20260508035758 77 180 0.9 3.5 0.00 0.00 0.00 35 1018.8
20260508035657 77 0 0.9 3.5 0.00 0.00 0.00 35 1018.8
20260508035558 76 180 0.9 3.5 0.00 0.00 0.00 35 1018.8
20260508035458 76 0 1.7 3.5 0.00 0.00 0.00 35 1018.8
20260508035358 76 180 2.6 3.5 0.00 0.00 0.00 35 1018.8
20260508035258 76 90 0.9 3.5 0.00 0.00 0.00 36 1018.9
20260508035158 76 90 0.9 3.5 0.00 0.00 0.00 36 1018.8
20260508035058 76 180 1.7 3.5 0.00 0.00 0.00 36 1018.7
20260508034958 76 45 1.7 4.3 0.00 0.00 0.00 36 1018.8
20260508034858 76 0 0.9 4.3 0.00 0.00 0.00 36 1019.0
20260508034758 76 90 0.0 4.3 0.00 0.00 0.00 36 1019.0
20260508034658 76 90 0.0 4.3 0.00 0.00 0.00 35 1018.9
20260508034558 76 180 0.9 4.3 0.00 0.00 0.00 36 1018.9
20260508034457 76 90 0.9 4.3 0.00 0.00 0.00 36 1018.9
20260508034358 77 90 0.9 4.3 0.00 0.00 0.00 36 1019.0
20260508034258 77 90 0.9 4.3 0.00 0.00 0.00 35 1019.0
20260508034158 77 315 1.7 4.3 0.00 0.00 0.00 35 1018.8
20260508034057 78 315 2.6 4.3 0.00 0.00 0.00 35 1018.9
20260508033957 78 45 1.7 4.3 0.00 0.00 0.00 36 1018.9
20260508033858 78 45 1.7 4.3 0.00 0.00 0.00 36 1018.9
20260508033758 77 45 1.7 4.3 0.00 0.00 0.00 36 1018.9
20260508033657 77 0 0.9 4.3 0.00 0.00 0.00 36 1018.9
20260508033557 77 45 0.9 4.3 0.00 0.00 0.00 36 1018.9
20260508033458 77 180 0.9 4.3 0.00 0.00 0.00 36 1019.0
20260508033358 77 0 0.0 4.3 0.00 0.00 0.00 36 1018.9
20260508033258 76 0 0.0 4.3 0.00 0.00 0.00 36 1019.0
20260508033157 76 0 0.9 4.3 0.00 0.00 0.00 36 1018.9
20260508033058 76 0 1.7 4.3 0.00 0.00 0.00 35 1019.0
20260508032958 76 90 1.7 4.3 0.00 0.00 0.00 35 1019.0
20260508032857 77 180 1.7 4.3 0.00 0.00 0.00 35 1019.1
20260508032757 76 180 1.7 4.3 0.00 0.00 0.00 37 1018.9
20260508032658 76 0 1.7 4.3 0.00 0.00 0.00 37 1019.0
20260508032558 76 45 0.9 4.3 0.00 0.00 0.00 37 1019.1
20260508032458 76 45 1.7 4.3 0.00 0.00 0.00 36 1019.0
20260508032357 76 90 2.6 4.3 0.00 0.00 0.00 36 1019.1
20260508032257 76 180 2.6 4.3 0.00 0.00 0.00 36 1019.1
20260508032158 77 90 2.6 4.3 0.00 0.00 0.00 36 1019.1
20260508032058 77 45 1.7 4.3 0.00 0.00 0.00 36 1019.1
20260508031957 77 180 2.6 4.3 0.00 0.00 0.00 37 1018.9
20260508031857 77 180 1.7 4.3 0.00 0.00 0.00 37 1019.0
20260508031758 77 180 1.7 4.3 0.00 0.00 0.00 37 1019.0
20260508031658 77 0 0.9 5.2 0.00 0.00 0.00 36 1019.0
20260508031557 76 315 0.0 5.2 0.00 0.00 0.00 36 1019.0
20260508031457 76 180 0.9 5.2 0.00 0.00 0.00 37 1019.0
20260508031357 76 0 1.7 5.2 0.00 0.00 0.00 37 1019.1
20260508031258 76 180 1.7 5.2 0.00 0.00 0.00 36 1019.1
20260508031158 76 90 1.7 5.2 0.00 0.00 0.00 36 1019.1
20260508031057 76 45 1.7 5.2 0.00 0.00 0.00 36 1019.2
20260508030957 75 90 0.9 5.2 0.00 0.00 0.00 36 1019.1
20260508030857 75 90 1.7 5.2 0.00 0.00 0.00 36 1019.1
20260508030758 75 90 2.6 5.2 0.00 0.00 0.00 37 1019.2
20260508030658 75 90 2.6 5.2 0.00 0.00 0.00 37 1019.1
20260508030557 76 90 2.6 5.2 0.00 0.00 0.00 37 1019.2
20260508030457 76 90 1.7 5.2 0.00 0.00 0.00 39 1019.2
20260508030357 75 0 0.9 4.3 0.00 0.00 0.00 39 1019.1
20260508030258 75 0 0.9 4.3 0.00 0.00 0.00 39 1019.2
20260508030157 74 45 0.9 4.3 0.00 0.00 0.00 38 1019.1
20260508025957 74 180 0.9 5.2 0.00 0.00 0.00 37 1019.2
20260508025858 74 90 1.7 5.2 0.00 0.00 0.00 37 1019.2
20260508025758 74 180 1.7 5.2 0.00 0.00 0.00 37 1019.2
20260508025657 75 180 1.7 5.2 0.00 0.00 0.00 37 1019.3
20260508025557 75 45 0.9 5.2 0.00 0.00 0.00 37 1019.1
20260508025457 75 90 0.0 5.2 0.00 0.00 0.00 38 1019.2
20260508025358 74 90 0.9 5.2 0.00 0.00 0.00 38 1019.1
20260508025258 74 180 2.6 5.2 0.00 0.00 0.00 38 1019.1
20260508025158 74 180 2.6 5.2 0.00 0.00 0.00 37 1019.1
20260508025058 74 90 2.6 5.2 0.00 0.00 0.00 36 1019.1
20260508024957 75 90 1.7 5.2 0.00 0.00 0.00 37 1019.2
20260508024858 75 90 0.9 5.2 0.00 0.00 0.00 38 1019.2
20260508024758 74 90 0.0 5.2 0.00 0.00 0.00 38 1019.1
20260508024658 74 90 0.0 5.2 0.00 0.00 0.00 37 1019.2
20260508024558 74 90 0.9 5.2 0.00 0.00 0.00 37 1019.2
20260508024457 75 180 1.7 5.2 0.00 0.00 0.00 37 1019.4
20260508024358 75 90 1.7 5.2 0.00 0.00 0.00 37 1019.4
20260508024258 75 90 1.7 5.2 0.00 0.00 0.00 37 1019.3
20260508024158 75 0 1.7 5.2 0.00 0.00 0.00 37 1019.3
20260508024058 75 180 1.7 5.2 0.00 0.00 0.00 37 1019.2
20260508023957 75 180 1.7 3.5 0.00 0.00 0.00 38 1019.3
20260508023858 75 180 0.0 3.5 0.00 0.00 0.00 39 1019.4
20260508023758 75 90 0.0 3.5 0.00 0.00 0.00 39 1019.5
20260508023658 75 225 0.0 3.5 0.00 0.00 0.00 39 1019.3
20260508023558 74 0 0.9 3.5 0.00 0.00 0.00 40 1019.4
20260508023457 74 180 1.7 4.3 0.00 0.00 0.00 40 1019.3
20260508023358 73 180 1.7 4.3 0.00 0.00 0.00 40 1019.3
20260508023258 73 180 1.7 4.3 0.00 0.00 0.00 41 1019.2
20260508023158 73 180 1.7 4.3 0.00 0.00 0.00 41 1019.4
20260508023057 72 180 0.9 4.3 0.00 0.00 0.00 41 1019.3
20260508022957 72 90 0.9 4.3 0.00 0.00 0.00 42 1019.3
20260508022858 72 0 0.9 4.3 0.00 0.00 0.00 41 1019.5
20260508022758 72 90 2.6 4.3 0.00 0.00 0.00 41 1019.4
20260508022658 72 90 2.6 4.3 0.00 0.00 0.00 40 1019.5
20260508022557 72 180 1.7 4.3 0.00 0.00 0.00 40 1019.4
20260508022457 72 45 1.7 4.3 0.00 0.00 0.00 39 1019.4
20260508022357 73 90 0.9 4.3 0.00 0.00 0.00 40 1019.4
20260508022258 73 90 0.9 4.3 0.00 0.00 0.00 40 1019.5
20260508022157 73 90 1.7 4.3 0.00 0.00 0.00 40 1019.4
20260508022057 73 90 0.9 4.3 0.00 0.00 0.00 41 1019.5
20260508021957 72 0 0.0 4.3 0.00 0.00 0.00 41 1019.5
20260508021857 72 90 0.9 4.3 0.00 0.00 0.00 40 1019.5
20260508021757 72 180 0.9 4.3 0.00 0.00 0.00 40 1019.6
20260508021657 72 0 1.7 4.3 0.00 0.00 0.00 40 1019.6
20260508021557 72 0 2.6 4.3 0.00 0.00 0.00 40 1019.4
20260508021457 73 180 1.7 3.5 0.00 0.00 0.00 39 1019.5
20260508021357 73 180 1.7 3.5 0.00 0.00 0.00 40 1019.7
20260508021257 73 180 0.9 3.5 0.00 0.00 0.00 40 1019.6
20260508021157 73 180 0.9 3.5 0.00 0.00 0.00 41 1019.7
20260508021058 74 180 0.9 3.5 0.00 0.00 0.00 41 1019.5
20260508020957 74 90 0.9 3.5 0.00 0.00 0.00 41 1019.6
20260508020857 74 180 0.9 3.5 0.00 0.00 0.00 41 1019.4
20260508020757 74 90 0.0 3.5 0.00 0.00 0.00 41 1019.5
20260508020657 74 45 1.7 3.5 0.00 0.00 0.00 39 1019.3
20260508020557 75 90 2.6 4.3 0.00 0.00 0.00 38 1019.6
20260508020457 75 180 1.7 5.2 0.00 0.00 0.00 39 1019.5
20260508020357 75 180 0.9 5.2 0.00 0.00 0.00 40 1019.7
20260508020257 75 180 0.9 5.2 0.00 0.00 0.00 41 1019.3
20260508020157 74 180 0.9 5.2 0.00 0.00 0.00 41 1019.4
20260508020057 74 90 0.9 5.2 0.00 0.00 0.00 41 1019.3
20260508015957 0 194 5.2 0.0 0.00 0.00 0.00
20260508015857 73 0 0.9 5.2 0.00 0.00 0.00 41 1019.3
20260508015757 73 180 1.7 5.2 0.00 0.00 0.00 40 1019.6
20260508015657 73 180 2.6 5.2 0.00 0.00 0.00 41 1019.4
20260508015557 73 180 1.7 5.2 0.00 0.00 0.00 41 1019.4
20260508015457 73 90 1.7 4.3 0.00 0.00 0.00 42 1019.5
20260508015357 73 45 1.7 4.3 0.00 0.00 0.00 41 1019.4
20260508015257 73 90 0.9 3.5 0.00 0.00 0.00 41 1019.5
20260508015157 73 45 0.9 2.6 0.00 0.00 0.00 42 1019.6
20260508015057 73 180 0.9 2.6 0.00 0.00 0.00 42 1019.4
20260508014957 73 180 0.9 2.6 0.00 0.00 0.00 43 1019.4
20260508014857 73 180 1.7 2.6 0.00 0.00 0.00 44 1019.4
20260508014757 73 90 0.9 2.6 0.00 0.00 0.00 45 1019.5
20260508014657 72 180 0.0 2.6 0.00 0.00 0.00 46 1019.6
20260508014557 72 0 0.0 2.6 0.00 0.00 0.00 46 1019.6
20260508014457 72 45 0.0 2.6 0.00 0.00 0.00 46 1019.4
20260508014357 72 0 0.0 2.6 0.00 0.00 0.00 47 1019.4
20260508014257 72 180 0.0 2.6 0.00 0.00 0.00 48 1019.4
20260508014157 72 0 0.0 2.6 0.00 0.00 0.00 48 1019.4
20260508014057 72 180 0.9 2.6 0.00 0.00 0.00 49 1019.5
20260508013957 72 0 1.7 2.6 0.00 0.00 0.00 49 1019.4
20260508013857 72 90 0.9 2.6 0.00 0.00 0.00 49 1019.3
20260508013757 71 45 0.9 2.6 0.00 0.00 0.00 49 1019.4
20260508013657 71 0 0.0 2.6 0.00 0.00 0.00 50 1019.3
20260508013557 71 0 0.0 2.6 0.00 0.00 0.00 50 1019.4
20260508013457 70 45 0.0 2.6 0.00 0.00 0.00 50 1019.4
20260508013357 70 0 0.0 2.6 0.00 0.00 0.00 49 1019.3
20260508013257 69 180 0.9 2.6 0.00 0.00 0.00 48 1019.3
20260508013157 69 0 0.9 2.6 0.00 0.00 0.00 49 1019.3
20260508013057 69 180 0.9 2.6 0.00 0.00 0.00 48 1019.3
20260508012957 69 90 0.9 2.6 0.00 0.00 0.00 49 1019.4
20260508012857 69 90 0.9 2.6 0.00 0.00 0.00 52 1019.3
20260508012757 69 180 0.0 2.6 0.00 0.00 0.00 52 1019.3
20260508012657 69 45 0.0 2.6 0.00 0.00 0.00 52 1019.5
20260508012557 69 45 0.9 2.6 0.00 0.00 0.00 52 1019.3
20260508012457 69 315 1.7 2.6 0.00 0.00 0.00 51 1019.4
20260508012357 69 0 1.7 2.6 0.00 0.00 0.00 51 1019.5
20260508012257 70 0 1.7 2.6 0.00 0.00 0.00 52 1019.5
20260508012157 69 0 0.9 3.5 0.00 0.00 0.00 52 1019.3
20260508012057 69 0 0.9 3.5 0.00 0.00 0.00 53 1019.5
20260508011857 69 45 0.9 3.5 0.00 0.00 0.00 53 1019.3
20260508011757 69 90 0.9 3.5 0.00 0.00 0.00 53 1019.5
20260508011657 69 90 0.9 3.5 0.00 0.00 0.00 53 1019.4
20260508011557 69 45 0.9 3.5 0.00 0.00 0.00 53 1019.4
20260508011457 69 45 0.9 3.5 0.00 0.00 0.00 54 1019.5
20260508011357 69 0 1.7 4.3 0.00 0.00 0.00 53 1019.4
20260508011257 69 45 1.7 4.3 0.00 0.00 0.00 53 1019.4
20260508011157 69 0 1.7 4.3 0.00 0.00 0.00 53 1019.2
20260508011057 69 90 0.9 4.3 0.00 0.00 0.00 53 1019.3
20260508010957 69 0 0.9 4.3 0.00 0.00 0.00 54 1019.1
20260508010857 69 45 0.9 4.3 0.00 0.00 0.00 54 1019.2
20260508010757 69 45 1.7 4.3 0.00 0.00 0.00 54 1019.3
20260508010657 69 90 1.7 4.3 0.00 0.00 0.00 54 1019.4
20260508010557 69 45 1.7 4.3 0.00 0.00 0.00 53 1019.4
20260508010457 69 0 1.7 4.3 0.00 0.00 0.00 53 1019.3
20260508010357 69 45 1.7 4.3 0.00 0.00 0.00 53 1019.3
20260508010257 69 45 0.9 4.3 0.00 0.00 0.00 52 1019.4
20260508010157 69 0 0.0 4.3 0.00 0.00 0.00 52 1019.5
20260508010057 70 0 0.9 4.3 0.00 0.00 0.00 52 1019.4
20260508005957 70 0 0.9 4.3 0.00 0.00 0.00 52 1019.3
20260508005857 70 0 0.9 4.3 0.00 0.00 0.00 52 1019.4
20260508005757 70 45 0.9 4.3 0.00 0.00 0.00 52 1019.3
20260508005657 70 45 0.9 4.3 0.00 0.00 0.00 52 1019.4
20260508005556 0 194 7.0 0.0 0.00 0.00 0.00
20260508005457 70 45 0.9 2.6 0.00 0.00 0.00 52 1019.3
20260508005357 70 0 0.0 3.5 0.00 0.00 0.00 52 1019.4
20260508005257 70 45 0.0 3.5 0.00 0.00 0.00 52 1019.5
20260508005157 70 90 0.0 3.5 0.00 0.00 0.00 53 1019.3
20260508005057 69 90 0.0 3.5 0.00 0.00 0.00 53 1019.1
20260508004957 69 90 0.0 3.5 0.00 0.00 0.00 53 1019.3
20260508004857 69 180 0.9 3.5 0.00 0.00 0.00 54 1019.3
20260508004757 69 45 0.9 3.5 0.00 0.00 0.00 53 1019.3
20260508004657 69 0 0.9 3.5 0.00 0.00 0.00 53 1019.2
20260508004557 69 0 1.7 3.5 0.00 0.00 0.00 53 1019.3
20260508004457 69 45 1.7 3.5 0.00 0.00 0.00 53 1019.3
20260508004357 69 0 0.9 3.5 0.00 0.00 0.00 54 1019.4
20260508004257 69 0 0.9 3.5 0.00 0.00 0.00 53 1019.4
20260508004157 69 0 0.9 3.5 0.00 0.00 0.00 52 1019.2
20260508004057 69 45 0.9 3.5 0.00 0.00 0.00 52 1019.2
20260508003957 70 45 0.9 3.5 0.00 0.00 0.00 52 1019.2
20260508003857 70 315 1.7 3.5 0.00 0.00 0.00 52 1019.2
20260508003757 70 45 0.9 3.5 0.00 0.00 0.00 53 1019.2
20260508003657 70 0 0.9 2.6 0.00 0.00 0.00 53 1019.2
20260508003556 70 0 0.9 2.6 0.00 0.00 0.00 53 1019.2
20260508003457 70 90 1.7 2.6 0.00 0.00 0.00 53 1019.1
20260508003357 70 45 0.9 2.6 0.00 0.00 0.00 53 1019.3
20260508003257 69 315 0.0 2.6 0.00 0.00 0.00 54 1019.1
20260508003157 69 0 0.0 2.6 0.00 0.00 0.00 53 1019.1
20260508003057 69 0 0.0 2.6 0.00 0.00 0.00 53 1019.2
20260508002957 69 90 0.0 2.6 0.00 0.00 0.00 54 1019.2
20260508002857 69 45 0.9 2.6 0.00 0.00 0.00 53 1019.3
20260508002757 68 45 0.0 2.6 0.00 0.00 0.00 54 1019.3
20260508002656 68 90 0.0 2.6 0.00 0.00 0.00 53 1019.2
20260508002557 68 0 0.9 2.6 0.00 0.00 0.00 53 1019.1
20260508002457 68 180 0.9 2.6 0.00 0.00 0.00 54 1019.0
20260508002357 68 180 0.0 2.6 0.00 0.00 0.00 55 1019.2
20260508002257 68 0 0.0 2.6 0.00 0.00 0.00 55 1019.0
20260508002156 68 45 0.0 2.6 0.00 0.00 0.00 55 1019.0
20260508002057 68 0 0.0 2.6 0.00 0.00 0.00 55 1019.2
20260508001957 68 0 0.0 2.6 0.00 0.00 0.00 55 1019.4
20260508001856 68 0 2.6 0.0 0.00 0.00 0.00 55 1019.2
20260508001757 68 180 0.0 2.6 0.00 0.00 0.00 55 1019.2
20260508001657 68 180 0.9 2.6 0.00 0.00 0.00 55 1019.2
20260508001557 68 180 1.7 2.6 0.00 0.00 0.00 55 1019.1
20260508001457 68 45 0.9 2.6 0.00 0.00 0.00 55 1019.4
20260508001357 68 90 0.0 2.6 0.00 0.00 0.00 56 1019.1
20260508001257 68 180 0.0 2.6 0.00 0.00 0.00 56 1019.3
20260508001156 67 180 0.0 2.6 0.00 0.00 0.00 57 1019.3
20260508001057 67 180 0.0 2.6 0.00 0.00 0.00 57 1019.2
20260508000957 67 180 0.0 2.6 0.00 0.00 0.00 57 1019.3
20260508000857 67 90 0.0 2.6 0.00 0.00 0.00 57 1019.2
20260508000757 66 90 0.9 2.6 0.00 0.00 0.00 57 1019.2
20260508000656 66 90 0.9 2.6 0.00 0.00 0.00 57 1019.3
20260508000556 66 90 0.9 2.6 0.00 0.00 0.00 57 1019.2
20260508000457 66 0 0.9 2.6 0.00 0.00 0.00 57 1019.3
20260508000357 66 45 0.9 3.5 0.00 0.00 0.00 56 1019.3
20260508000257 66 90 0.9 3.5 0.00 0.00 0.00 55 1019.2
20260508000156 66 315 0.0 3.5 0.00 0.00 0.00 55 1019.2
20260508000057 67 45 0.9 3.5 0.00 0.00 0.00 55 1019.4
20260507235957 67 45 0.9 3.5 0.00 0.00 0.00 54 1019.4
20260507235857 66 0 0.9 3.5 0.00 0.00 0.00 53 1019.3
20260507235757 66 180 0.9 3.5 0.00 0.00 0.00 53 1019.4
20260507235656 66 180 0.9 3.5 0.00 0.00 0.00 53 1019.3
20260507235556 66 180 1.7 3.5 0.00 0.00 0.00 53 1019.4
20260507235457 67 180 0.9 3.5 0.00 0.00 0.00 53 1019.4
20260507235357 67 180 0.0 3.5 0.00 0.00 0.00 54 1019.2
20260507235256 67 180 0.9 3.5 0.00 0.00 0.00 53 1019.2
20260507235156 67 180 1.7 3.5 0.00 0.00 0.00 53 1019.2
20260507235056 67 180 1.7 3.5 0.00 0.00 0.00 54 1019.1
20260507234957 67 180 0.9 3.5 0.00 0.00 0.00 55 1019.2
20260507234857 67 90 0.0 3.5 0.00 0.00 0.00 54 1019.2
20260507234756 67 90 0.0 3.5 0.00 0.00 0.00 54 1019.2
20260507234656 67 180 0.0 3.5 0.00 0.00 0.00 54 1019.3
20260507234557 67 0 0.0 3.5 0.00 0.00 0.00 53 1019.1
20260507234457 67 90 0.0 3.5 0.00 0.00 0.00 53 1019.3
20260507234357 67 180 0.9 3.5 0.00 0.00 0.00 53 1019.1
20260507234256 67 90 0.9 3.5 0.00 0.00 0.00 54 1019.0
20260507234156 67 90 1.7 3.5 0.00 0.00 0.00 55 1019.1
20260507234057 66 180 0.9 3.5 0.00 0.00 0.00 55 1018.9
20260507233957 66 90 0.0 3.5 0.00 0.00 0.00 55 1018.9
20260507233856 66 180 0.9 3.5 0.00 0.00 0.00 54 1018.9
20260507233756 66 180 1.7 3.5 0.00 0.00 0.00 54 1018.7
20260507233657 66 45 1.7 3.5 0.00 0.00 0.00 54 1018.8
20260507233557 66 180 1.7 3.5 0.00 0.00 0.00 54 1019.1
20260507233456 66 90 1.7 3.5 0.00 0.00 0.00 54 1018.9
20260507233256 66 90 0.9 3.5 0.00 0.00 0.00 54 1018.9
20260507233157 66 180 0.9 3.5 0.00 0.00 0.00 55 1019.0
20260507233056 66 90 0.9 3.5 0.00 0.00 0.00 55 1018.9
20260507232956 66 180 0.9 3.5 0.00 0.00 0.00 56 1018.9
20260507232856 66 180 0.9 3.5 0.00 0.00 0.00 56 1018.9
20260507232756 66 180 0.0 2.6 0.00 0.00 0.00 56 1018.8
20260507232657 66 180 0.0 2.6 0.00 0.00 0.00 56 1018.8
20260507232556 66 180 0.9 2.6 0.00 0.00 0.00 57 1019.1
20260507232456 66 180 0.9 3.5 0.00 0.00 0.00 58 1019.2
20260507232356 66 90 0.0 3.5 0.00 0.00 0.00 59 1018.8
20260507232256 65 180 0.9 3.5 0.00 0.00 0.00 59 1018.8
20260507232156 65 90 0.9 3.5 0.00 0.00 0.00 59 1018.9
20260507232056 65 180 0.9 3.5 0.00 0.00 0.00 60 1018.5
20260507231956 65 180 0.0 3.5 0.00 0.00 0.00 60 1018.8
20260507231856 65 180 0.0 3.5 0.00 0.00 0.00 59 1018.8
20260507231756 65 90 0.9 3.5 0.00 0.00 0.00 59 1019.1
20260507231656 65 90 1.7 3.5 0.00 0.00 0.00 59 1018.9
20260507231556 65 180 1.7 3.5 0.00 0.00 0.00 60 1018.6
20260507231456 65 180 1.7 3.5 0.00 0.00 0.00 61 1018.7
20260507231356 65 180 1.7 2.6 0.00 0.00 0.00 61 1018.5
20260507231256 65 180 0.9 2.6 0.00 0.00 0.00 62 1018.4
20260507231156 65 0 0.0 2.6 0.00 0.00 0.00 63 1018.5
20260507231056 64 180 0.9 2.6 0.00 0.00 0.00 64 1018.5
20260507230956 64 180 0.9 2.6 0.00 0.00 0.00 64 1018.4
20260507230856 64 180 0.9 2.6 0.00 0.00 0.00 64 1018.4
20260507230756 63 180 0.0 2.6 0.00 0.00 0.00 65 1018.4
20260507230656 63 180 0.9 2.6 0.00 0.00 0.00 65 1018.5
20260507230556 63 180 0.0 2.6 0.00 0.00 0.00 65 1018.4
20260507230456 63 180 0.0 2.6 0.00 0.00 0.00 65 1018.5
20260507230356 63 180 0.9 2.6 0.00 0.00 0.00 65 1018.5
20260507230256 63 180 0.9 2.6 0.00 0.00 0.00 65 1018.7
20260507230156 62 180 0.9 2.6 0.00 0.00 0.00 65 1018.7
20260507230056 62 180 0.9 2.6 0.00 0.00 0.00 65 1018.5
20260507225956 62 180 0.9 2.6 0.00 0.00 0.00 65 1018.3
20260507225856 62 180 0.9 2.6 0.00 0.00 0.00 66 1018.6
20260507225756 62 90 0.9 2.6 0.00 0.00 0.00 66 1018.5
20260507225656 62 180 1.7 2.6 0.00 0.00 0.00 66 1018.8
20260507225556 62 180 1.7 2.6 0.00 0.00 0.00 67 1018.5
20260507225456 62 180 0.9 2.6 0.00 0.00 0.00 67 1018.5
20260507225356 62 180 0.9 2.6 0.00 0.00 0.00 68 1018.7
20260507225256 62 90 0.0 2.6 0.00 0.00 0.00 69 1018.7
20260507225156 62 0 0.0 1.7 0.00 0.00 0.00 70 1018.7
20260507225056 62 180 0.0 1.7 0.00 0.00 0.00 70 1018.3
20260507224956 62 180 0.0 1.7 0.00 0.00 0.00 70 1018.2
20260507224856 62 180 0.9 1.7 0.00 0.00 0.00 70 1018.5
20260507224756 61 180 0.9 1.7 0.00 0.00 0.00 70 1018.6
20260507224656 61 180 0.9 1.7 0.00 0.00 0.00 71 1018.6
20260507224556 61 180 0.0 1.7 0.00 0.00 0.00 71 1018.1
20260507224456 61 180 0.0 1.7 0.00 0.00 0.00 71 1018.3
20260507224356 61 180 0.0 1.7 0.00 0.00 0.00 71 1018.7
20260507224256 61 90 0.0 1.7 0.00 0.00 0.00 71 1018.3
20260507224156 61 180 0.0 1.7 0.00 0.00 0.00 72 1018.6
20260507224056 61 0 0.0 1.7 0.00 0.00 0.00 72 1018.5
20260507223956 61 180 0.0 1.7 0.00 0.00 0.00 72 1018.5
20260507223856 61 180 0.0 1.7 0.00 0.00 0.00 72 1018.5
20260507223756 60 180 0.0 1.7 0.00 0.00 0.00 72 1018.5
20260507223656 60 0 0.0 1.7 0.00 0.00 0.00 72 1018.6
20260507223556 60 90 0.0 2.6 0.00 0.00 0.00 72 1018.5
20260507223456 60 90 0.0 2.6 0.00 0.00 0.00 73 1018.5
20260507223357 60 180 0.0 2.6 0.00 0.00 0.00 73 1018.7
20260507223256 60 180 0.0 2.6 0.00 0.00 0.00 73 1018.7
20260507223156 60 90 0.0 2.6 0.00 0.00 0.00 73 1018.6
20260507223056 60 0 0.0 2.6 0.00 0.00 0.00 73 1018.6
20260507222956 60 180 0.0 2.6 0.00 0.00 0.00 73 1018.7
20260507222856 60 90 0.0 2.6 0.00 0.00 0.00 73 1018.6
20260507222756 60 180 0.9 2.6 0.00 0.00 0.00 73 1018.8
20260507222656 60 180 1.7 2.6 0.00 0.00 0.00 73 1018.5
20260507222556 60 180 0.9 2.6 0.00 0.00 0.00 73 1018.6
20260507222456 60 180 0.9 2.6 0.00 0.00 0.00 73 1018.6
20260507222356 60 180 0.0 2.6 0.00 0.00 0.00 73 1018.4
20260507222256 0 185 7.0 0.0 0.00 0.00 0.00
20260507222156 60 0 0.0 1.7 0.00 0.00 0.00 73 1018.6
20260507222056 60 180 0.0 1.7 0.00 0.00 0.00 73 1018.5
20260507221956 60 90 0.0 2.6 0.00 0.00 0.00 74 1018.5
20260507221856 60 315 0.0 2.6 0.00 0.00 0.00 74 1018.5
20260507221756 60 180 0.0 2.6 0.00 0.00 0.00 74 1018.5
20260507221656 60 180 0.0 2.6 0.00 0.00 0.00 74 1018.4
20260507221556 60 0 2.6 0.0 0.00 0.00 0.00 74 1018.4
20260507221456 60 180 0.0 2.6 0.00 0.00 0.00 74 1018.4
20260507221356 60 90 0.0 2.6 0.00 0.00 0.00 74 1018.4
20260507221256 0 186 7.8 0.0 0.00 0.00 0.00
20260507221156 60 180 0.0 2.6 0.00 0.00 0.00 74 1018.4
20260507221056 60 90 0.0 2.6 0.00 0.00 0.00 74 1018.4
20260507220956 60 90 0.0 1.7 0.00 0.00 0.00 74 1018.5
20260507220856 59 90 0.0 2.6 0.00 0.00 0.00 74 1018.6
20260507220756 59 180 0.0 2.6 0.00 0.00 0.00 74 1018.5
20260507220656 59 180 0.0 2.6 0.00 0.00 0.00 74 1018.4
20260507220556 59 90 0.0 2.6 0.00 0.00 0.00 74 1018.5
20260507220456 59 90 0.0 2.6 0.00 0.00 0.00 74 1018.4
20260507220356 59 180 0.0 2.6 0.00 0.00 0.00 74 1018.3
20260507220256 59 180 0.0 2.6 0.00 0.00 0.00 74 1018.4
20260507220156 59 0 0.0 2.6 0.00 0.00 0.00 75 1018.4
20260507220056 59 0 0.0 2.6 0.00 0.00 0.00 75 1018.5
20260507215956 59 90 0.0 2.6 0.00 0.00 0.00 75 1018.6
20260507215856 59 0 0.0 0.9 0.00 0.00 0.00 75 1018.4
20260507215756 59 90 0.0 0.9 0.00 0.00 0.00 75 1018.4
20260507215656 59 180 0.0 0.9 0.00 0.00 0.00 75 1018.4
20260507215556 59 180 0.0 0.9 0.00 0.00 0.00 75 1018.4
20260507215456 59 180 0.0 0.9 0.00 0.00 0.00 75 1018.6
20260507215356 59 180 0.0 0.9 0.00 0.00 0.00 75 1018.4
20260507215256 59 90 0.0 0.9 0.00 0.00 0.00 75 1018.6
20260507215156 59 90 0.0 0.9 0.00 0.00 0.00 75 1018.6
20260507215056 59 180 0.0 0.9 0.00 0.00 0.00 75 1018.5
20260507214956 59 0 0.0 0.9 0.00 0.00 0.00 75 1018.5
20260507214856 59 90 0.0 0.9 0.00 0.00 0.00 75 1018.5
20260507214756 59 180 0.0 0.9 0.00 0.00 0.00 75 1018.4
20260507214656 59 180 0.0 0.9 0.00 0.00 0.00 75 1018.5
20260507214556 59 180 0.0 0.9 0.00 0.00 0.00 75 1018.5
20260507214456 59 180 0.0 0.9 0.00 0.00 0.00 75 1018.4
20260507214356 59 180 0.0 0.9 0.00 0.00 0.00 75 1018.5
20260507214256 59 90 0.0 0.9 0.00 0.00 0.00 75 1018.4
20260507214156 59 180 0.0 0.9 0.00 0.00 0.00 75 1018.4
20260507214056 59 180 0.0 0.9 0.00 0.00 0.00 75 1018.3
20260507213956 59 180 0.0 1.7 0.00 0.00 0.00 75 1018.4
20260507213856 59 180 0.0 1.7 0.00 0.00 0.00 75 1018.3
20260507213756 59 90 0.0 1.7 0.00 0.00 0.00 75 1018.3
20260507213656 59 180 0.0 1.7 0.00 0.00 0.00 75 1018.4
20260507213556 59 180 0.0 2.6 0.00 0.00 0.00 75 1018.3
20260507213456 59 180 0.0 2.6 0.00 0.00 0.00 75 1018.3
20260507213356 59 180 0.0 2.6 0.00 0.00 0.00 75 1018.2
20260507213256 59 180 0.0 2.6 0.00 0.00 0.00 75 1018.2
20260507213156 59 90 0.0 2.6 0.00 0.00 0.00 75 1018.2
20260507213056 59 90 0.0 2.6 0.00 0.00 0.00 75 1018.1
20260507212956 59 180 0.0 2.6 0.00 0.00 0.00 75 1018.0
20260507212856 59 180 0.0 2.6 0.00 0.00 0.00 75 1018.2
20260507212756 59 180 0.0 2.6 0.00 0.00 0.00 75 1018.0
20260507212656 59 180 0.0 2.6 0.00 0.00 0.00 75 1018.1
20260507212556 59 180 0.0 2.6 0.00 0.00 0.00 75 1018.1
20260507212456 59 180 0.9 2.6 0.00 0.00 0.00 75 1018.2
20260507212356 59 180 0.9 2.6 0.00 0.00 0.00 75 1018.1
20260507212256 59 90 0.9 2.6 0.00 0.00 0.00 75 1018.1
20260507212156 59 180 0.0 2.6 0.00 0.00 0.00 75 1018.1
20260507212056 59 180 0.0 2.6 0.00 0.00 0.00 75 1018.0
20260507211956 59 180 0.0 2.6 0.00 0.00 0.00 75 1018.0
20260507211856 59 180 0.0 2.6 0.00 0.00 0.00 75 1018.0
20260507211756 59 180 0.0 2.6 0.00 0.00 0.00 75 1018.0
20260507211656 59 180 0.9 2.6 0.00 0.00 0.00 75 1018.2
20260507211556 59 180 0.0 2.6 0.00 0.00 0.00 75 1018.0
20260507211456 59 180 0.0 2.6 0.00 0.00 0.00 75 1018.0
20260507211356 59 180 0.0 2.6 0.00 0.00 0.00 75 1018.1
20260507211256 59 90 0.0 2.6 0.00 0.00 0.00 75 1018.1
20260507211156 59 180 0.0 2.6 0.00 0.00 0.00 75 1018.0
20260507211056 59 180 0.0 2.6 0.00 0.00 0.00 75 1018.0
20260507210956 59 180 0.0 2.6 0.00 0.00 0.00 75 1017.9
20260507210856 59 180 0.0 2.6 0.00 0.00 0.00 75 1017.9
20260507210756 59 180 0.0 2.6 0.00 0.00 0.00 75 1017.9
20260507210656 59 180 0.0 1.7 0.00 0.00 0.00 75 1017.9
20260507210556 59 180 0.0 1.7 0.00 0.00 0.00 75 1017.9
20260507210456 59 45 0.0 1.7 0.00 0.00 0.00 75 1017.9
20260507210356 59 90 0.0 1.7 0.00 0.00 0.00 75 1017.9
20260507210256 59 0 0.0 2.6 0.00 0.00 0.00 75 1018.0
20260507210156 59 45 0.0 2.6 0.00 0.00 0.00 75 1017.9
20260507210056 59 180 0.0 2.6 0.00 0.00 0.00 75 1018.0
20260507205956 59 180 0.0 2.6 0.00 0.00 0.00 75 1018.0
20260507205856 59 180 0.0 2.6 0.00 0.00 0.00 75 1017.9
20260507205755 59 90 0.0 2.6 0.00 0.00 0.00 75 1018.0
20260507205656 59 180 0.0 2.6 0.00 0.00 0.00 75 1018.1
20260507205556 59 90 0.0 2.6 0.00 0.00 0.00 75 1018.0
20260507205455 0 181 10.4 0.0 0.00 0.00 0.00
20260507205356 59 180 0.9 2.6 0.00 0.00 0.00 75 1018.0
20260507205256 59 180 0.9 2.6 0.00 0.00 0.00 75 1017.9
20260507205155 59 180 0.0 2.6 0.00 0.00 0.00 75 1018.1
20260507205056 59 180 0.0 2.6 0.00 0.00 0.00 75 1017.9
20260507204956 59 225 0.0 1.7 0.00 0.00 0.00 75 1017.8
20260507204856 59 180 0.0 1.7 0.00 0.00 0.00 75 1018.0
20260507204756 59 180 0.0 1.7 0.00 0.00 0.00 75 1017.7
20260507204656 59 180 0.0 2.6 0.00 0.00 0.00 75 1017.8
20260507204556 59 180 0.9 2.6 0.00 0.00 0.00 75 1017.9
20260507204456 59 180 0.9 2.6 0.00 0.00 0.00 75 1017.7
20260507204356 59 180 0.0 2.6 0.00 0.00 0.00 75 1017.7
20260507204256 59 180 0.0 2.6 0.00 0.00 0.00 75 1017.8
20260507204155 59 180 0.0 2.6 0.00 0.00 0.00 75 1017.9
20260507204055 59 90 0.0 2.6 0.00 0.00 0.00 75 1017.7
20260507203955 59 180 0.0 2.6 0.00 0.00 0.00 75 1017.7
20260507203856 59 180 0.9 2.6 0.00 0.00 0.00 75 1017.7
20260507203756 59 180 0.9 2.6 0.00 0.00 0.00 75 1017.8
20260507203656 59 180 0.0 2.6 0.00 0.00 0.00 75 1017.9
20260507203556 59 90 0.9 2.6 0.00 0.00 0.00 75 1017.9
20260507203455 59 180 0.0 2.6 0.00 0.00 0.00 75 1018.0
20260507203356 59 180 0.0 2.6 0.00 0.00 0.00 75 1017.8
20260507203255 59 90 0.0 2.6 0.00 0.00 0.00 75 1017.7
20260507203156 59 180 0.0 2.6 0.00 0.00 0.00 75 1017.8
20260507203055 59 0 0.0 2.6 0.00 0.00 0.00 75 1018.0
20260507202955 59 90 0.0 2.6 0.00 0.00 0.00 75 1017.8
20260507202855 59 90 0.0 2.6 0.00 0.00 0.00 75 1017.9
20260507202755 59 90 0.0 1.7 0.00 0.00 0.00 75 1017.8
20260507202656 59 180 0.0 1.7 0.00 0.00 0.00 75 1017.9
20260507202556 59 0 0.0 1.7 0.00 0.00 0.00 75 1017.9
20260507202456 59 180 0.0 1.7 0.00 0.00 0.00 75 1017.9
20260507202356 59 180 0.0 1.7 0.00 0.00 0.00 75 1017.9
20260507202256 59 180 0.0 1.7 0.00 0.00 0.00 75 1017.8
20260507202155 59 180 0.0 1.7 0.00 0.00 0.00 75 1017.8
20260507202055 59 180 0.0 1.7 0.00 0.00 0.00 75 1017.7
20260507201955 59 180 0.0 1.7 0.00 0.00 0.00 75 1017.7
20260507201855 59 180 0.9 1.7 0.00 0.00 0.00 75 1017.7
20260507201755 59 180 0.0 1.7 0.00 0.00 0.00 75 1017.9
20260507201655 59 0 0.0 1.7 0.00 0.00 0.00 75 1017.8
20260507201556 59 90 0.0 1.7 0.00 0.00 0.00 75 1017.7
20260507201456 59 180 0.0 1.7 0.00 0.00 0.00 75 1018.0
20260507201356 59 180 0.0 1.7 0.00 0.00 0.00 74 1017.9
20260507201255 59 180 0.0 1.7 0.00 0.00 0.00 74 1017.8
20260507201155 59 180 0.0 1.7 0.00 0.00 0.00 74 1017.9
20260507201055 59 90 0.0 2.6 0.00 0.00 0.00 74 1017.7
20260507200955 59 180 0.0 2.6 0.00 0.00 0.00 74 1017.7
20260507200855 59 180 0.0 2.6 0.00 0.00 0.00 74 1017.7
20260507200755 59 180 0.0 2.6 0.00 0.00 0.00 74 1017.7
20260507200655 59 180 0.0 2.6 0.00 0.00 0.00 74 1017.8
20260507200556 59 180 0.0 2.6 0.00 0.00 0.00 74 1017.7
20260507200456 59 90 0.0 2.6 0.00 0.00 0.00 74 1017.7
20260507200356 59 180 0.0 2.6 0.00 0.00 0.00 74 1017.8
20260507200256 59 180 0.0 2.6 0.00 0.00 0.00 74 1017.7
20260507200155 59 180 0.9 2.6 0.00 0.00 0.00 74 1017.8
20260507200055 59 90 0.9 2.6 0.00 0.00 0.00 74 1017.6
20260507195955 59 180 0.0 2.6 0.00 0.00 0.00 74 1017.7
20260507195855 59 90 0.0 2.6 0.00 0.00 0.00 74 1017.7
20260507195755 59 90 0.0 2.6 0.00 0.00 0.00 74 1017.8
20260507195655 59 90 0.9 2.6 0.00 0.00 0.00 74 1017.7
20260507195555 59 90 0.9 2.6 0.00 0.00 0.00 74 1017.7
20260507195455 59 180 0.0 2.6 0.00 0.00 0.00 74 1017.6
20260507195356 59 0 0.0 2.6 0.00 0.00 0.00 75 1017.6
20260507195255 59 180 0.9 2.6 0.00 0.00 0.00 75 1017.5
20260507195156 59 180 0.0 2.6 0.00 0.00 0.00 75 1017.6
20260507195055 59 90 0.9 2.6 0.00 0.00 0.00 75 1017.6
20260507194955 59 90 0.9 2.6 0.00 0.00 0.00 75 1017.6
20260507194855 59 180 0.0 2.6 0.00 0.00 0.00 75 1017.6
20260507194755 59 90 0.0 1.7 0.00 0.00 0.00 75 1017.6
20260507194655 59 180 0.0 1.7 0.00 0.00 0.00 75 1017.6
20260507194555 59 180 0.0 1.7 0.00 0.00 0.00 75 1017.6
20260507194455 59 180 0.0 1.7 0.00 0.00 0.00 74 1017.5
20260507194356 59 180 0.0 1.7 0.00 0.00 0.00 74 1017.7
20260507194255 59 180 0.0 1.7 0.00 0.00 0.00 74 1017.6
20260507194155 59 180 0.0 1.7 0.00 0.00 0.00 74 1017.6
20260507194055 59 0 0.0 1.7 0.00 0.00 0.00 74 1017.6
20260507193955 59 0 1.7 0.0 0.00 0.00 0.00 74 1017.8
20260507193855 59 180 0.0 1.7 0.00 0.00 0.00 74 1017.7
20260507193755 59 180 0.0 1.7 0.00 0.00 0.00 74 1017.6
20260507193655 59 180 0.0 1.7 0.00 0.00 0.00 74 1017.6
20260507193555 59 180 0.0 1.7 0.00 0.00 0.00 74 1017.6
20260507193455 59 180 0.0 1.7 0.00 0.00 0.00 74 1017.5
20260507193355 59 180 0.0 2.6 0.00 0.00 0.00 74 1017.4
20260507193255 59 180 0.0 2.6 0.00 0.00 0.00 74 1017.5
20260507193155 59 225 0.0 2.6 0.00 0.00 0.00 74 1017.6
20260507193055 59 225 0.0 2.6 0.00 0.00 0.00 74 1017.7
20260507192955 59 90 0.0 2.6 0.00 0.00 0.00 74 1017.6
20260507192855 59 180 0.0 2.6 0.00 0.00 0.00 74 1017.5
20260507192755 59 0 0.0 2.6 0.00 0.00 0.00 74 1017.6
20260507192655 59 0 0.0 2.6 0.00 0.00 0.00 74 1017.6
20260507192555 60 90 0.0 2.6 0.00 0.00 0.00 74 1017.5
20260507192455 59 180 0.0 2.6 0.00 0.00 0.00 74 1017.6
20260507192355 60 180 0.0 1.7 0.00 0.00 0.00 74 1017.4
20260507192255 60 180 0.0 1.7 0.00 0.00 0.00 74 1017.4
20260507192155 60 90 0.0 1.7 0.00 0.00 0.00 74 1017.3
20260507192055 60 180 0.0 1.7 0.00 0.00 0.00 74 1017.5
20260507191955 60 225 0.0 1.7 0.00 0.00 0.00 74 1017.3
20260507191855 60 225 0.0 1.7 0.00 0.00 0.00 74 1017.4
20260507191756 60 0 0.0 1.7 0.00 0.00 0.00 74 1017.4
20260507191656 60 180 0.0 1.7 0.00 0.00 0.00 74 1017.5
20260507191556 60 0 0.0 1.7 0.00 0.00 0.00 74 1017.5
20260507191455 60 180 0.0 1.7 0.00 0.00 0.00 74 1017.6
20260507191355 60 180 0.0 1.7 0.00 0.00 0.00 74 1017.6
20260507191255 60 0 0.0 1.7 0.00 0.00 0.00 74 1017.4
20260507191155 60 180 0.0 1.7 0.00 0.00 0.00 74 1017.5
20260507191055 60 180 0.0 1.7 0.00 0.00 0.00 74 1017.6
20260507190956 60 180 0.0 1.7 0.00 0.00 0.00 74 1017.5
20260507190856 60 180 0.0 1.7 0.00 0.00 0.00 74 1017.5
20260507190756 60 45 0.0 1.7 0.00 0.00 0.00 74 1017.6
20260507190656 60 180 0.0 1.7 0.00 0.00 0.00 74 1017.4
20260507190556 60 90 0.0 1.7 0.00 0.00 0.00 74 1017.6
20260507190455 60 90 0.0 1.7 0.00 0.00 0.00 74 1017.4
20260507190355 60 0 0.0 1.7 0.00 0.00 0.00 74 1017.4
20260507190255 60 180 0.0 1.7 0.00 0.00 0.00 74 1017.4
20260507190155 60 0 0.0 1.7 0.00 0.00 0.00 74 1017.4
20260507190055 60 180 0.0 1.7 0.00 0.00 0.00 74 1017.4
20260507185955 60 45 0.0 1.7 0.00 0.00 0.00 74 1017.4
20260507185855 60 180 0.0 0.9 0.00 0.00 0.00 74 1017.3
20260507185756 60 180 0.0 2.6 0.00 0.00 0.00 74 1017.4
20260507185656 60 180 0.0 2.6 0.00 0.00 0.00 73 1017.3
20260507185556 60 0 0.0 2.6 0.00 0.00 0.00 73 1017.3
20260507185455 60 90 0.0 2.6 0.00 0.00 0.00 73 1017.2
20260507185355 60 180 0.0 2.6 0.00 0.00 0.00 73 1017.4
20260507185255 60 45 0.0 2.6 0.00 0.00 0.00 73 1017.3
20260507185155 60 180 0.0 2.6 0.00 0.00 0.00 73 1017.4
20260507185055 60 90 0.0 2.6 0.00 0.00 0.00 73 1017.2
20260507184955 60 0 0.0 2.6 0.00 0.00 0.00 73 1017.2
20260507184855 60 90 0.9 3.5 0.00 0.00 0.00 73 1017.3
20260507184755 60 90 0.9 3.5 0.00 0.00 0.00 73 1017.5
20260507184655 60 180 0.0 3.5 0.00 0.00 0.00 73 1017.2
20260507184556 60 180 0.0 3.5 0.00 0.00 0.00 73 1017.2
20260507184456 60 225 0.0 3.5 0.00 0.00 0.00 73 1017.3
20260507184355 60 225 0.0 3.5 0.00 0.00 0.00 73 1017.3
20260507184255 60 0 0.0 3.5 0.00 0.00 0.00 73 1017.2
20260507184155 60 225 0.0 3.5 0.00 0.00 0.00 73 1017.2
20260507184055 60 180 0.0 3.5 0.00 0.00 0.00 73 1017.3
20260507183955 60 180 0.0 3.5 0.00 0.00 0.00 73 1017.2
20260507183855 60 180 0.0 2.6 0.00 0.00 0.00 73 1017.2
20260507183755 60 90 0.0 2.6 0.00 0.00 0.00 73 1017.2
20260507183655 60 180 0.0 2.6 0.00 0.00 0.00 73 1017.3
20260507183555 60 180 0.0 2.6 0.00 0.00 0.00 73 1017.2
20260507183455 60 180 0.0 2.6 0.00 0.00 0.00 73 1017.2
20260507183355 60 0 0.0 2.6 0.00 0.00 0.00 73 1017.4
20260507183255 60 315 0.0 2.6 0.00 0.00 0.00 73 1017.3
20260507183155 60 180 0.0 2.6 0.00 0.00 0.00 73 1017.2
20260507183055 60 180 0.0 2.6 0.00 0.00 0.00 73 1017.2
20260507182955 60 90 0.9 2.6 0.00 0.00 0.00 73 1017.2
20260507182855 60 90 0.9 2.6 0.00 0.00 0.00 73 1017.4
20260507182755 60 0 0.0 2.6 0.00 0.00 0.00 73 1017.4
20260507182654 0 173 11.3 0.0 0.00 0.00 0.00
20260507182555 60 180 0.0 2.6 0.00 0.00 0.00 73 1017.4
20260507182455 60 180 0.0 2.6 0.00 0.00 0.00 73 1017.3
20260507182355 60 90 0.0 2.6 0.00 0.00 0.00 73 1017.4
20260507182255 60 45 0.0 2.6 0.00 0.00 0.00 73 1017.3
20260507182155 60 180 0.0 2.6 0.00 0.00 0.00 73 1017.3
20260507182055 60 180 0.0 2.6 0.00 0.00 0.00 72 1017.3
20260507181955 61 0 0.0 2.6 0.00 0.00 0.00 72 1017.3
20260507181855 61 45 0.0 2.6 0.00 0.00 0.00 72 1017.3
20260507181755 61 45 0.0 2.6 0.00 0.00 0.00 72 1017.3
20260507181655 61 0 0.0 2.6 0.00 0.00 0.00 72 1017.3
20260507181555 61 180 0.0 2.6 0.00 0.00 0.00 72 1017.1
20260507181455 61 0 0.0 2.6 0.00 0.00 0.00 72 1017.1
20260507181355 61 180 0.9 2.6 0.00 0.00 0.00 72 1017.3
20260507181255 61 45 0.0 2.6 0.00 0.00 0.00 73 1017.3
20260507181155 61 45 0.0 1.7 0.00 0.00 0.00 72 1017.4
20260507181055 61 45 0.0 1.7 0.00 0.00 0.00 72 1017.3
20260507180955 61 225 0.0 1.7 0.00 0.00 0.00 72 1017.3
20260507180855 61 0 0.0 1.7 0.00 0.00 0.00 72 1017.4
20260507180755 61 0 0.0 1.7 0.00 0.00 0.00 72 1017.4
20260507180655 61 90 0.0 1.7 0.00 0.00 0.00 72 1017.3
20260507180555 61 180 0.0 1.7 0.00 0.00 0.00 72 1017.5
20260507180455 61 180 0.0 1.7 0.00 0.00 0.00 73 1017.4
20260507180355 61 45 0.0 1.7 0.00 0.00 0.00 72 1017.5
20260507180255 61 45 0.0 1.7 0.00 0.00 0.00 72 1017.4
20260507180155 61 180 0.0 1.7 0.00 0.00 0.00 72 1017.4
20260507180055 61 90 0.0 1.7 0.00 0.00 0.00 72 1017.5
20260507175955 61 45 0.0 1.7 0.00 0.00 0.00 72 1017.4
20260507175855 61 180 0.0 2.6 0.00 0.00 0.00 72 1017.4
20260507175755 61 45 0.0 2.6 0.00 0.00 0.00 72 1017.5
20260507175655 61 90 0.0 2.6 0.00 0.00 0.00 72 1017.5
20260507175555 61 45 0.0 2.6 0.00 0.00 0.00 72 1017.3
20260507175455 61 180 0.0 2.6 0.00 0.00 0.00 72 1017.5
20260507175354 0 175 13.9 0.0 0.00 0.00 0.00
20260507175255 61 90 0.0 3.5 0.00 0.00 0.00 72 1017.3
20260507175155 61 180 0.0 4.3 0.00 0.00 0.00 72 1017.3
20260507175055 61 0 0.0 4.3 0.00 0.00 0.00 72 1017.4
20260507174955 61 180 0.0 4.3 0.00 0.00 0.00 72 1017.4
20260507174855 61 90 0.0 4.3 0.00 0.00 0.00 72 1017.3
20260507174755 61 180 0.0 4.3 0.00 0.00 0.00 72 1017.3
20260507174655 61 180 0.9 4.3 0.00 0.00 0.00 72 1017.4
20260507174555 61 45 0.9 4.3 0.00 0.00 0.00 72 1017.2
20260507174455 61 45 0.9 4.3 0.00 0.00 0.00 72 1017.1
20260507174354 0 172 15.6 0.0 0.00 0.00 0.00
20260507174255 61 45 1.7 4.3 0.00 0.00 0.00 72 1017.2
20260507174155 61 0 0.9 5.2 0.00 0.00 0.00 72 1017.2
20260507174055 61 180 0.9 5.2 0.00 0.00 0.00 72 1017.2
20260507173955 61 0 0.0 5.2 0.00 0.00 0.00 72 1017.1
20260507173855 61 45 0.0 5.2 0.00 0.00 0.00 72 1017.1
20260507173755 61 0 0.0 5.2 0.00 0.00 0.00 72 1017.2
20260507173655 61 180 0.0 5.2 0.00 0.00 0.00 72 1017.2
20260507173555 61 45 1.7 5.2 0.00 0.00 0.00 72 1017.1
20260507173455 61 45 2.6 5.2 0.00 0.00 0.00 72 1017.4
20260507173355 61 90 2.6 5.2 0.00 0.00 0.00 73 1017.1
20260507173255 61 90 2.6 5.2 0.00 0.00 0.00 73 1017.2
20260507173155 61 45 1.7 5.2 0.00 0.00 0.00 73 1017.2
20260507173055 61 0 0.9 5.2 0.00 0.00 0.00 73 1017.1
20260507172955 61 45 0.0 5.2 0.00 0.00 0.00 73 1017.2
20260507172855 61 0 0.0 5.2 0.00 0.00 0.00 73 1017.1
20260507172755 61 90 0.0 5.2 0.00 0.00 0.00 73 1017.0
20260507172655 61 180 0.0 5.2 0.00 0.00 0.00 73 1017.1
20260507172555 61 0 0.9 5.2 0.00 0.00 0.00 73 1017.0
20260507172455 61 45 1.7 5.2 0.00 0.00 0.00 73 1016.9
20260507172355 61 90 1.7 5.2 0.00 0.00 0.00 73 1017.0
20260507172255 61 45 1.7 5.2 0.00 0.00 0.00 73 1016.9
20260507172155 61 0 0.9 3.5 0.00 0.00 0.00 73 1017.1
20260507172054 61 180 0.9 3.5 0.00 0.00 0.00 73 1017.0
20260507171955 61 90 0.0 3.5 0.00 0.00 0.00 73 1017.0
20260507171855 61 45 0.0 3.5 0.00 0.00 0.00 73 1017.0
20260507171755 62 90 0.0 3.5 0.00 0.00 0.00 73 1017.0
20260507171655 62 180 0.0 3.5 0.00 0.00 0.00 74 1016.8
20260507171555 62 90 0.9 3.5 0.00 0.00 0.00 74 1016.7
20260507171455 62 90 0.0 3.5 0.00 0.00 0.00 74 1016.9
20260507171354 0 170 19.1 0.0 0.00 0.00 0.00
20260507171254 62 180 0.0 4.3 0.00 0.00 0.00 74 1016.8
20260507171154 62 90 1.7 4.3 0.00 0.00 0.00 74 1017.1
20260507171055 62 45 2.6 4.3 0.00 0.00 0.00 74 1016.9
20260507170955 62 0 2.6 4.3 0.00 0.00 0.00 75 1016.9
20260507170855 62 45 0.9 4.3 0.00 0.00 0.00 75 1017.0
20260507170755 62 315 0.9 4.3 0.00 0.00 0.00 75 1016.9
20260507170655 62 45 0.9 4.3 0.00 0.00 0.00 75 1016.9
20260507170554 0 167 16.5 0.0 0.00 0.00 0.00
20260507170454 62 90 0.9 4.3 0.00 0.00 0.00 75 1016.9
20260507170354 62 45 0.0 4.3 0.00 0.00 0.00 75 1016.9
20260507170254 62 90 0.9 4.3 0.00 0.00 0.00 75 1017.1
20260507170155 62 0 0.9 4.3 0.00 0.00 0.00 75 1017.1
20260507170055 62 315 0.9 4.3 0.00 0.00 0.00 76 1016.9
20260507165955 62 45 0.9 4.3 0.00 0.00 0.00 76 1016.9
20260507165855 62 45 0.9 4.3 0.00 0.00 0.00 76 1016.8
20260507165754 62 45 0.9 4.3 0.00 0.00 0.00 76 1017.0
20260507165654 62 45 1.7 4.3 0.00 0.00 0.00 76 1016.9
20260507165554 62 45 1.7 4.3 0.00 0.00 0.00 77 1017.0
20260507165454 62 90 0.9 2.6 0.00 0.00 0.00 77 1016.9
20260507165355 62 45 0.0 4.3 0.00 0.00 0.00 77 1016.9
20260507165255 62 90 0.0 4.3 0.00 0.00 0.00 77 1016.9
20260507165155 62 90 0.0 4.3 0.00 0.00 0.00 77 1017.0
20260507165055 62 45 0.0 4.3 0.00 0.00 0.00 77 1016.8
20260507164954 62 0 0.0 5.2 0.00 0.00 0.00 77 1016.7
20260507164854 62 45 0.0 5.2 0.00 0.00 0.00 77 1016.8
20260507164754 62 0 0.0 5.2 0.00 0.00 0.00 77 1016.8
20260507164654 62 225 0.9 5.2 0.00 0.00 0.00 78 1016.9
20260507164555 62 45 1.7 5.2 0.00 0.00 0.00 78 1016.9
20260507164455 62 0 1.7 5.2 0.00 0.00 0.00 78 1016.8
20260507164355 62 45 0.9 5.2 0.00 0.00 0.00 78 1016.9
20260507164255 62 90 0.0 5.2 0.00 0.00 0.00 78 1016.8
20260507164154 62 0 0.9 5.2 0.00 0.00 0.00 79 1016.8
20260507164054 62 0 1.7 5.2 0.00 0.00 0.00 79 1016.8
20260507163954 62 45 1.7 4.3 0.00 0.00 0.00 79 1016.9
20260507163854 62 90 1.7 4.3 0.00 0.00 0.00 79 1016.9
20260507163754 62 45 0.0 4.3 0.00 0.00 0.00 79 1016.9
20260507163655 62 180 0.0 2.6 0.00 0.00 0.00 79 1016.9
20260507163555 62 90 0.0 3.5 0.00 0.00 0.00 79 1016.7
20260507163454 62 45 0.0 3.5 0.00 0.00 0.00 79 1016.8
20260507163354 62 90 0.9 3.5 0.00 0.00 0.00 79 1016.6
20260507163254 62 0 0.9 3.5 0.00 0.00 0.00 79 1016.8
20260507163154 62 90 0.0 3.5 0.00 0.00 0.00 79 1016.7
20260507163054 62 180 0.9 3.5 0.00 0.00 0.00 80 1016.9
20260507162954 62 45 0.9 3.5 0.00 0.00 0.00 80 1016.8
20260507162855 62 45 0.0 3.5 0.00 0.00 0.00 80 1016.7
20260507162755 62 180 0.9 3.5 0.00 0.00 0.00 80 1016.7
20260507162654 62 90 0.9 3.5 0.00 0.00 0.00 80 1016.7
20260507162554 62 45 0.0 2.6 0.00 0.00 0.00 80 1016.7
20260507162454 62 45 0.9 2.6 0.00 0.00 0.00 80 1016.8
20260507162354 62 0 0.9 2.6 0.00 0.00 0.00 80 1016.6
20260507162254 62 90 0.9 2.6 0.00 0.00 0.00 80 1016.8
20260507162154 62 0 0.0 2.6 0.00 0.00 0.00 80 1016.6
20260507162054 62 90 0.0 2.6 0.00 0.00 0.00 80 1016.7
20260507161955 62 180 0.9 2.6 0.00 0.00 0.00 80 1016.8
20260507161854 62 90 0.9 2.6 0.00 0.00 0.00 80 1016.8
20260507161754 62 0 0.0 3.5 0.00 0.00 0.00 81 1016.8
20260507161654 62 0 0.9 3.5 0.00 0.00 0.00 81 1016.7
20260507161554 62 90 0.9 3.5 0.00 0.00 0.00 81 1016.7
20260507161454 62 0 0.0 3.5 0.00 0.00 0.00 81 1016.8
20260507161354 62 45 0.0 3.5 0.00 0.00 0.00 81 1016.8
20260507161254 62 315 0.9 3.5 0.00 0.00 0.00 81 1016.7
20260507161154 62 90 0.9 3.5 0.00 0.00 0.00 81 1016.8
20260507161054 62 180 0.9 3.5 0.00 0.00 0.00 81 1016.8
20260507160954 62 0 1.7 3.5 0.00 0.00 0.00 81 1016.8
20260507160854 62 0 0.9 3.5 0.00 0.00 0.00 81 1016.8
20260507160754 62 90 0.0 2.6 0.00 0.00 0.00 81 1016.8
20260507160654 62 45 0.9 2.6 0.00 0.00 0.00 81 1016.8
20260507160554 62 0 0.9 2.6 0.00 0.00 0.00 81 1016.8
20260507160454 62 45 0.0 2.6 0.00 0.00 0.00 82 1016.8
20260507160354 62 180 0.0 2.6 0.00 0.00 0.00 82 1016.6
20260507160254 62 45 0.0 2.6 0.00 0.00 0.00 82 1016.8
20260507160154 62 0 0.0 2.6 0.00 0.00 0.00 82 1016.8
20260507160054 62 0 0.0 2.6 0.00 0.00 0.00 82 1016.7
20260507155954 62 45 0.0 2.6 0.00 0.00 0.00 82 1016.7
20260507155854 62 90 0.0 2.6 0.00 0.00 0.00 82 1016.7
20260507155754 62 90 0.9 2.6 0.00 0.00 0.00 82 1016.7
20260507155654 62 45 0.9 2.6 0.00 0.00 0.00 82 1016.7
20260507155554 62 90 0.9 4.3 0.00 0.00 0.00 82 1016.7
20260507155454 62 90 0.9 4.3 0.00 0.00 0.00 82 1016.7
20260507155354 62 0 0.9 4.3 0.00 0.00 0.00 82 1016.7
20260507155254 62 0 0.9 4.3 0.00 0.00 0.00 82 1016.7
20260507155154 62 45 0.9 4.3 0.00 0.00 0.00 82 1016.7
20260507155054 62 0 0.9 4.3 0.00 0.00 0.00 82 1016.8
20260507154954 62 45 0.0 4.3 0.00 0.00 0.00 82 1016.7
20260507154854 62 45 0.0 4.3 0.00 0.00 0.00 82 1016.7
20260507154754 62 180 0.9 4.3 0.00 0.00 0.00 82 1016.7
20260507154654 62 45 0.9 4.3 0.00 0.00 0.00 82 1016.8
20260507154554 62 45 0.9 2.6 0.00 0.00 0.00 82 1016.8
20260507154454 62 45 0.0 2.6 0.00 0.00 0.00 82 1016.9
20260507154354 62 90 0.0 2.6 0.00 0.00 0.00 82 1016.8
20260507154254 62 45 0.0 2.6 0.00 0.00 0.00 82 1017.0
20260507154154 62 315 0.9 3.5 0.00 0.00 0.00 82 1017.0
20260507154054 62 45 1.7 3.5 0.00 0.00 0.00 82 1016.9
20260507153954 62 90 0.9 3.5 0.00 0.00 0.00 82 1016.8
20260507153854 62 45 0.0 3.5 0.00 0.00 0.00 82 1016.9
20260507153754 62 90 0.0 3.5 0.00 0.00 0.00 82 1017.0
20260507153654 62 0 0.0 3.5 0.00 0.00 0.00 82 1017.0
20260507153554 62 45 0.0 3.5 0.00 0.00 0.00 82 1017.0
20260507153454 62 90 0.0 3.5 0.00 0.00 0.00 82 1017.0
20260507153354 62 0 0.0 3.5 0.00 0.00 0.00 82 1017.0
20260507153254 62 0 0.9 3.5 0.00 0.00 0.00 82 1017.1
20260507153154 62 45 0.9 2.6 0.00 0.00 0.00 82 1017.0
20260507153054 62 0 0.0 2.6 0.00 0.00 0.00 82 1016.9
20260507152954 62 90 0.9 2.6 0.00 0.00 0.00 82 1016.9
20260507152854 62 0 0.0 2.6 0.00 0.00 0.00 82 1016.8
20260507152754 62 180 0.0 2.6 0.00 0.00 0.00 82 1016.8
20260507152654 62 180 0.0 2.6 0.00 0.00 0.00 82 1016.9
20260507152554 62 0 0.0 2.6 0.00 0.00 0.00 82 1016.9
20260507152454 62 0 0.0 2.6 0.00 0.00 0.00 82 1016.8
20260507152354 62 0 0.0 2.6 0.00 0.00 0.00 82 1016.9
20260507152254 62 90 0.0 2.6 0.00 0.00 0.00 82 1016.8
20260507152154 62 90 0.0 2.6 0.00 0.00 0.00 82 1016.9
20260507152055 62 90 0.0 2.6 0.00 0.00 0.00 82 1016.8
20260507151954 62 90 0.9 2.6 0.00 0.00 0.00 82 1016.8
20260507151854 62 45 0.9 2.6 0.00 0.00 0.00 82 1016.9
20260507151754 62 90 0.9 2.6 0.00 0.00 0.00 82 1016.8
20260507151654 62 45 0.9 2.6 0.00 0.00 0.00 82 1016.8
20260507151554 62 0 0.9 2.6 0.00 0.00 0.00 82 1016.8
20260507151454 62 45 0.9 2.6 0.00 0.00 0.00 82 1016.9
20260507151354 62 0 0.9 2.6 0.00 0.00 0.00 82 1016.9
20260507151254 62 315 0.0 1.7 0.00 0.00 0.00 82 1017.0
20260507151154 62 315 0.0 1.7 0.00 0.00 0.00 82 1017.0
20260507151054 62 45 0.0 2.6 0.00 0.00 0.00 81 1017.0
20260507150954 62 0 0.0 2.6 0.00 0.00 0.00 81 1017.1
20260507150854 62 45 0.0 2.6 0.00 0.00 0.00 81 1016.9
20260507150754 62 180 0.0 2.6 0.00 0.00 0.00 81 1016.9
20260507150654 62 0 0.0 2.6 0.00 0.00 0.00 81 1016.8
20260507150554 62 180 0.0 2.6 0.00 0.00 0.00 81 1016.8
20260507150454 62 90 0.0 2.6 0.00 0.00 0.00 81 1016.8
20260507150354 62 90 0.0 2.6 0.00 0.00 0.00 81 1016.8
20260507150254 62 0 0.0 2.6 0.00 0.00 0.00 81 1016.8
20260507150054 62 90 0.9 2.6 0.00 0.00 0.00 82 1016.7
20260507145954 62 0 0.9 2.6 0.00 0.00 0.00 81 1016.6
20260507145854 62 0 0.0 2.6 0.00 0.00 0.00 81 1016.5
20260507145754 62 90 0.0 1.7 0.00 0.00 0.00 81 1016.6
20260507145654 62 0 0.0 1.7 0.00 0.00 0.00 81 1016.6
20260507145554 62 180 0.0 1.7 0.00 0.00 0.00 81 1016.6
20260507145454 62 90 0.0 1.7 0.00 0.00 0.00 81 1016.6
20260507145354 62 90 0.0 2.6 0.00 0.00 0.00 81 1016.7
20260507145254 62 225 0.0 2.6 0.00 0.00 0.00 81 1016.7
20260507145154 62 180 0.0 2.6 0.00 0.00 0.00 81 1016.7
20260507145054 62 45 0.0 2.6 0.00 0.00 0.00 81 1016.8
20260507144954 62 90 0.0 2.6 0.00 0.00 0.00 81 1016.7
20260507144854 62 180 0.0 2.6 0.00 0.00 0.00 81 1016.8
20260507144754 62 315 0.0 2.6 0.00 0.00 0.00 81 1016.8
20260507144654 62 180 0.0 2.6 0.00 0.00 0.00 81 1016.7
20260507144554 62 45 0.0 2.6 0.00 0.00 0.00 81 1016.5
20260507144454 62 180 0.0 2.6 0.00 0.00 0.00 81 1016.5
20260507144354 62 180 0.0 2.6 0.00 0.00 0.00 81 1016.6
20260507144254 62 180 0.0 2.6 0.00 0.00 0.00 81 1016.7
20260507144154 62 90 0.0 2.6 0.00 0.00 0.00 81 1016.6
20260507144054 62 90 0.0 2.6 0.00 0.00 0.00 81 1016.6
20260507143954 62 0 0.0 2.6 0.00 0.00 0.00 81 1016.6
20260507143854 62 90 0.9 2.6 0.00 0.00 0.00 81 1016.6
20260507143754 62 45 0.0 2.6 0.00 0.00 0.00 81 1016.7
20260507143654 62 45 0.0 2.6 0.00 0.00 0.00 81 1016.7
20260507143554 62 45 0.0 2.6 0.00 0.00 0.00 81 1016.7
20260507143454 62 0 0.0 2.6 0.00 0.00 0.00 81 1016.7
20260507143354 62 45 0.9 2.6 0.00 0.00 0.00 81 1016.8
20260507143254 62 315 0.9 2.6 0.00 0.00 0.00 81 1016.8
20260507143154 62 45 0.9 2.6 0.00 0.00 0.00 81 1016.9
20260507143054 62 90 0.9 2.6 0.00 0.00 0.00 81 1017.0
20260507142954 62 45 0.9 3.5 0.00 0.00 0.00 81 1016.9
20260507142854 62 45 0.0 3.5 0.00 0.00 0.00 81 1016.9
20260507142754 62 0 0.0 3.5 0.00 0.00 0.00 81 1016.9
20260507142654 62 90 0.0 3.5 0.00 0.00 0.00 81 1016.9
20260507142553 62 1 3.5 0.0 0.00 0.00 0.00 81 1016.9
20260507142454 62 0 0.9 3.5 0.00 0.00 0.00 81 1016.8
20260507142354 62 90 0.0 3.5 0.00 0.00 0.00 81 1016.7
20260507142254 62 45 0.9 3.5 0.00 0.00 0.00 81 1016.8
20260507142154 62 45 0.9 3.5 0.00 0.00 0.00 81 1016.8
20260507142054 62 45 0.9 3.5 0.00 0.00 0.00 81 1016.6
20260507141954 62 45 0.0 3.5 0.00 0.00 0.00 81 1016.7
20260507141854 62 45 0.0 3.5 0.00 0.00 0.00 81 1016.7
20260507141754 62 45 0.9 3.5 0.00 0.00 0.00 81 1016.7
20260507141654 62 0 0.9 3.5 0.00 0.00 0.00 81 1016.8
20260507141554 62 45 0.9 2.6 0.00 0.00 0.00 81 1016.8
20260507141454 62 45 0.9 2.6 0.00 0.00 0.00 81 1016.9
20260507141354 62 0 0.9 2.6 0.00 0.00 0.00 81 1016.8
20260507141254 62 90 0.0 2.6 0.00 0.00 0.00 81 1016.8
20260507141154 62 90 0.0 2.6 0.00 0.00 0.00 81 1017.0
20260507141054 62 45 0.0 2.6 0.00 0.00 0.00 81 1016.8
20260507140954 62 90 0.0 2.6 0.00 0.00 0.00 81 1016.7
20260507140854 62 45 0.0 2.6 0.00 0.00 0.00 81 1016.7
20260507140754 62 90 0.0 2.6 0.00 0.00 0.00 81 1016.8
20260507140654 62 90 0.0 2.6 0.00 0.00 0.00 81 1016.7
20260507140554 62 0 0.0 2.6 0.00 0.00 0.00 81 1016.6
20260507140454 62 45 0.0 2.6 0.00 0.00 0.00 81 1016.7
20260507140354 62 90 0.0 2.6 0.00 0.00 0.00 81 1016.7
20260507140254 62 90 0.0 2.6 0.00 0.00 0.00 81 1016.6
20260507140154 62 45 0.0 2.6 0.00 0.00 0.00 81 1016.6
20260507140054 62 0 0.0 2.6 0.00 0.00 0.00 80 1016.6
20260507135954 62 0 0.0 2.6 0.00 0.00 0.00 80 1016.6
20260507135854 62 90 0.9 2.6 0.00 0.00 0.00 80 1016.5
20260507135754 62 45 0.0 2.6 0.00 0.00 0.00 80 1016.5
20260507135654 62 90 0.0 2.6 0.00 0.00 0.00 80 1016.7
20260507135554 62 90 0.0 2.6 0.00 0.00 0.00 80 1016.4
20260507135454 62 0 0.0 2.6 0.00 0.00 0.00 80 1016.3
20260507135354 62 45 0.9 2.6 0.00 0.00 0.00 80 1016.3
20260507135254 62 180 0.0 2.6 0.00 0.00 0.00 80 1016.3
20260507135154 62 180 0.0 1.7 0.00 0.00 0.00 80 1016.2
20260507135054 62 180 0.0 1.7 0.00 0.00 0.00 80 1016.1
20260507134954 62 180 0.0 2.6 0.00 0.00 0.00 80 1016.3
20260507134854 62 90 0.0 2.6 0.00 0.00 0.00 80 1016.1
20260507134754 62 45 0.0 2.6 0.00 0.00 0.00 80 1016.2
20260507134654 62 90 0.0 2.6 0.00 0.00 0.00 80 1016.1
20260507134553 62 45 0.0 2.6 0.00 0.00 0.00 80 1016.0
20260507134454 62 45 0.0 2.6 0.00 0.00 0.00 80 1016.2
20260507134354 62 45 0.0 2.6 0.00 0.00 0.00 80 1016.2
20260507134254 62 90 0.0 2.6 0.00 0.00 0.00 80 1016.3
20260507134154 62 90 0.9 2.6 0.00 0.00 0.00 80 1016.1
20260507134053 62 1 2.6 0.0 0.00 0.00 0.00 80 1016.2
20260507133954 62 180 0.9 2.6 0.00 0.00 0.00 80 1016.0
20260507133853 62 90 0.0 2.6 0.00 0.00 0.00 80 1016.0
20260507133753 62 90 0.9 2.6 0.00 0.00 0.00 80 1015.9
20260507133653 62 45 0.9 2.6 0.00 0.00 0.00 80 1015.9
20260507133553 62 45 0.9 2.6 0.00 0.00 0.00 80 1016.0
20260507133454 62 90 0.9 2.6 0.00 0.00 0.00 80 1015.9
20260507133354 62 45 0.0 2.6 0.00 0.00 0.00 80 1015.9
20260507133254 62 0 0.0 2.6 0.00 0.00 0.00 80 1015.9
20260507133154 62 45 0.0 2.6 0.00 0.00 0.00 80 1016.0
20260507133054 62 90 0.9 2.6 0.00 0.00 0.00 80 1016.2
20260507132954 62 90 0.9 2.6 0.00 0.00 0.00 80 1016.0
20260507132853 62 45 0.0 2.6 0.00 0.00 0.00 80 1015.9
20260507132753 62 90 0.0 2.6 0.00 0.00 0.00 80 1015.9
20260507132653 62 45 0.0 2.6 0.00 0.00 0.00 80 1015.9
20260507132554 62 45 0.9 2.6 0.00 0.00 0.00 80 1015.9
20260507132454 62 45 0.9 2.6 0.00 0.00 0.00 80 1015.8
20260507132354 62 90 0.9 2.6 0.00 0.00 0.00 80 1015.7
20260507132254 62 180 0.9 2.6 0.00 0.00 0.00 80 1015.6
20260507132153 62 180 0.9 2.6 0.00 0.00 0.00 80 1015.7
20260507132053 62 90 0.9 2.6 0.00 0.00 0.00 80 1015.7
20260507131953 62 45 0.9 2.6 0.00 0.00 0.00 80 1015.5
20260507131853 62 45 1.7 2.6 0.00 0.00 0.00 80 1015.9
20260507131753 62 45 0.9 2.6 0.00 0.00 0.00 80 1016.0
20260507131653 62 45 0.0 2.6 0.00 0.00 0.00 79 1016.0
20260507131554 62 45 0.0 2.6 0.00 0.00 0.00 79 1016.0
20260507131454 62 45 0.0 2.6 0.00 0.00 0.00 79 1016.1
20260507131354 62 180 0.0 2.6 0.00 0.00 0.00 79 1016.2
20260507131254 62 180 0.0 2.6 0.00 0.00 0.00 79 1016.0
20260507131153 62 180 0.0 2.6 0.00 0.00 0.00 79 1016.0
20260507131053 62 0 0.0 2.6 0.00 0.00 0.00 79 1016.1
20260507130953 62 180 0.0 2.6 0.00 0.00 0.00 79 1016.0
20260507130853 62 90 0.9 2.6 0.00 0.00 0.00 79 1016.1
20260507130753 62 90 0.9 2.6 0.00 0.00 0.00 79 1016.0
20260507130653 62 90 0.0 2.6 0.00 0.00 0.00 79 1016.0
20260507130553 62 0 0.0 2.6 0.00 0.00 0.00 79 1016.0
20260507130454 62 90 0.0 2.6 0.00 0.00 0.00 79 1016.0
20260507130353 63 180 0.9 2.6 0.00 0.00 0.00 79 1016.0
20260507130253 62 180 0.9 2.6 0.00 0.00 0.00 79 1015.9
20260507130153 63 180 0.9 2.6 0.00 0.00 0.00 79 1015.9
20260507130053 63 90 0.9 2.6 0.00 0.00 0.00 79 1015.9
20260507125953 63 180 0.9 2.6 0.00 0.00 0.00 79 1015.8
20260507125853 63 90 1.7 2.6 0.00 0.00 0.00 79 1015.9
20260507125753 63 90 1.7 2.6 0.00 0.00 0.00 79 1015.8
20260507125653 63 180 0.9 2.6 0.00 0.00 0.00 79 1015.8
20260507125553 63 90 0.0 2.6 0.00 0.00 0.00 79 1015.9
20260507125454 63 180 0.0 2.6 0.00 0.00 0.00 79 1015.9
20260507125353 63 180 0.0 2.6 0.00 0.00 0.00 79 1016.0
20260507125253 63 180 0.0 2.6 0.00 0.00 0.00 79 1015.8
20260507125153 63 180 0.0 2.6 0.00 0.00 0.00 79 1015.8
20260507125053 63 180 0.0 2.6 0.00 0.00 0.00 79 1015.9
20260507124953 63 90 0.9 2.6 0.00 0.00 0.00 79 1016.0
20260507124853 63 90 0.0 2.6 0.00 0.00 0.00 79 1015.9
20260507124753 63 180 0.0 2.6 0.00 0.00 0.00 79 1015.9
20260507124653 63 180 0.0 2.6 0.00 0.00 0.00 79 1015.9
20260507124554 63 0 0.0 2.6 0.00 0.00 0.00 79 1015.8
20260507124453 63 90 0.9 2.6 0.00 0.00 0.00 79 1015.8
20260507124353 63 180 0.9 2.6 0.00 0.00 0.00 79 1015.7
20260507124253 63 180 0.0 2.6 0.00 0.00 0.00 79 1015.8
20260507124153 63 180 0.0 2.6 0.00 0.00 0.00 79 1015.7
20260507124053 63 90 0.9 2.6 0.00 0.00 0.00 79 1015.8
20260507123953 63 180 0.9 2.6 0.00 0.00 0.00 79 1015.6
20260507123853 63 180 0.9 3.5 0.00 0.00 0.00 79 1015.6
20260507123753 63 180 0.9 3.5 0.00 0.00 0.00 79 1015.7
20260507123653 63 90 0.9 3.5 0.00 0.00 0.00 79 1015.6
20260507123553 63 180 0.0 3.5 0.00 0.00 0.00 79 1015.8
20260507123453 63 180 0.0 3.5 0.00 0.00 0.00 79 1015.6
20260507123353 63 90 0.9 3.5 0.00 0.00 0.00 79 1015.6
20260507123253 63 180 0.9 3.5 0.00 0.00 0.00 79 1015.7
20260507123153 63 180 0.9 3.5 0.00 0.00 0.00 79 1015.6
20260507123053 63 0 1.7 3.5 0.00 0.00 0.00 79 1015.5
20260507122953 63 180 1.7 3.5 0.00 0.00 0.00 79 1015.5
20260507122853 63 180 0.9 3.5 0.00 0.00 0.00 79 1015.5
20260507122753 63 180 0.0 3.5 0.00 0.00 0.00 79 1015.5
20260507122653 63 45 0.9 3.5 0.00 0.00 0.00 79 1015.5
20260507122553 63 90 0.9 3.5 0.00 0.00 0.00 79 1015.4
20260507122453 63 90 0.9 3.5 0.00 0.00 0.00 79 1015.4
20260507122353 63 90 0.9 3.5 0.00 0.00 0.00 79 1015.4
20260507122253 63 90 1.7 3.5 0.00 0.00 0.00 79 1015.3
20260507122153 63 180 0.9 3.5 0.00 0.00 0.00 79 1015.4
20260507122053 63 0 0.9 3.5 0.00 0.00 0.00 79 1015.4
20260507121953 63 90 0.9 3.5 0.00 0.00 0.00 79 1015.4
20260507121853 63 180 0.9 3.5 0.00 0.00 0.00 79 1015.2
20260507121753 63 90 1.7 3.5 0.00 0.00 0.00 79 1015.3
20260507121653 63 180 1.7 3.5 0.00 0.00 0.00 79 1015.2
20260507121553 63 180 1.7 3.5 0.00 0.00 0.00 79 1015.2
20260507121453 63 180 0.9 2.6 0.00 0.00 0.00 78 1015.2
20260507121353 63 180 0.9 2.6 0.00 0.00 0.00 78 1015.1
20260507121253 63 180 0.9 2.6 0.00 0.00 0.00 78 1015.2
20260507121153 63 180 1.7 2.6 0.00 0.00 0.00 78 1015.2
20260507121053 63 180 1.7 2.6 0.00 0.00 0.00 78 1015.2
20260507120953 63 180 1.7 2.6 0.00 0.00 0.00 78 1015.0
20260507120853 63 180 0.9 2.6 0.00 0.00 0.00 78 1014.9
20260507120753 63 180 0.9 2.6 0.00 0.00 0.00 78 1015.0
20260507120653 63 180 1.7 2.6 0.00 0.00 0.00 78 1015.0
20260507120553 63 90 1.7 2.6 0.00 0.00 0.00 78 1015.1
20260507120453 63 180 0.9 2.6 0.00 0.00 0.00 78 1014.8
20260507120354 63 90 0.9 2.6 0.00 0.00 0.00 78 1015.0
20260507120253 63 180 0.0 2.6 0.00 0.00 0.00 78 1014.9
20260507120153 63 180 0.0 1.7 0.00 0.00 0.00 79 1014.9
20260507120053 63 45 0.0 1.7 0.00 0.00 0.00 79 1014.9
20260507115953 63 180 0.0 1.7 0.00 0.00 0.00 79 1014.9
20260507115853 63 180 0.0 1.7 0.00 0.00 0.00 79 1014.8
20260507115753 63 180 0.0 1.7 0.00 0.00 0.00 79 1014.7
20260507115653 63 180 0.0 1.7 0.00 0.00 0.00 79 1014.7
20260507115553 63 90 0.0 1.7 0.00 0.00 0.00 79 1014.6
20260507115453 63 45 0.0 1.7 0.00 0.00 0.00 79 1014.7
20260507115353 63 90 0.0 1.7 0.00 0.00 0.00 78 1014.8
20260507115253 63 90 0.0 1.7 0.00 0.00 0.00 78 1014.7
20260507115153 63 90 0.0 1.7 0.00 0.00 0.00 78 1014.7
20260507115053 63 180 0.0 1.7 0.00 0.00 0.00 78 1014.7
20260507114953 63 180 0.0 1.7 0.00 0.00 0.00 78 1014.6
20260507114853 63 180 0.0 1.7 0.00 0.00 0.00 78 1014.6
20260507114753 63 90 0.0 1.7 0.00 0.00 0.00 78 1014.6
20260507114653 63 180 0.0 1.7 0.00 0.00 0.00 78 1014.7
20260507114553 63 90 0.0 1.7 0.00 0.00 0.00 78 1014.6
20260507114453 63 45 0.0 1.7 0.00 0.00 0.00 78 1014.5
20260507114353 63 90 0.0 2.6 0.00 0.00 0.00 78 1014.5
20260507114253 63 180 0.0 2.6 0.00 0.00 0.00 78 1014.6
20260507114153 63 180 0.0 2.6 0.00 0.00 0.00 78 1014.5
20260507114053 63 180 0.0 2.6 0.00 0.00 0.00 78 1014.4
20260507113953 63 45 0.0 2.6 0.00 0.00 0.00 78 1014.4
20260507113853 63 0 0.0 2.6 0.00 0.00 0.00 78 1014.4
20260507113753 64 0 0.0 2.6 0.00 0.00 0.00 78 1014.3
20260507113653 63 45 0.0 2.6 0.00 0.00 0.00 78 1014.4
20260507113553 64 45 0.9 2.6 0.00 0.00 0.00 78 1014.4
20260507113453 63 0 0.0 2.6 0.00 0.00 0.00 78 1014.3
20260507113353 64 0 0.0 2.6 0.00 0.00 0.00 78 1014.3
20260507113253 64 90 0.0 2.6 0.00 0.00 0.00 78 1014.2
20260507113153 64 180 0.0 2.6 0.00 0.00 0.00 78 1014.4
20260507113053 64 180 0.0 2.6 0.00 0.00 0.00 78 1014.3
20260507112953 64 90 0.0 2.6 0.00 0.00 0.00 78 1014.2
20260507112853 64 90 0.9 2.6 0.00 0.00 0.00 78 1014.3
20260507112753 64 90 0.9 2.6 0.00 0.00 0.00 78 1014.3
20260507112653 64 315 0.9 4.3 0.00 0.00 0.00 78 1014.2
20260507112553 64 45 0.0 4.3 0.00 0.00 0.00 78 1014.2
20260507112453 64 0 0.0 4.3 0.00 0.00 0.00 78 1014.3
20260507112352 0 143 8.7 0.0 0.00 0.00 0.00
20260507112253 64 0 0.0 4.3 0.00 0.00 0.00 78 1014.1
20260507112153 64 90 0.0 4.3 0.00 0.00 0.00 78 1014.2
20260507112053 64 180 0.0 4.3 0.00 0.00 0.00 78 1014.2
20260507111953 64 45 0.9 4.3 0.00 0.00 0.00 78 1014.3
20260507111853 64 45 0.9 4.3 0.00 0.00 0.00 78 1014.2
20260507111753 64 45 0.0 4.3 0.00 0.00 0.00 78 1014.2
20260507111653 64 0 0.0 4.3 0.00 0.00 0.00 78 1014.1
20260507111552 0 140 8.7 0.0 0.00 0.00 0.00
20260507111453 64 225 0.0 4.3 0.00 0.00 0.00 78 1014.1
20260507111353 64 90 0.0 4.3 0.00 0.00 0.00 78 1013.9
20260507111253 64 180 0.0 4.3 0.00 0.00 0.00 78 1013.9
20260507111153 64 45 0.0 4.3 0.00 0.00 0.00 78 1013.9
20260507111053 63 90 0.9 4.3 0.00 0.00 0.00 78 1013.9
20260507110953 63 45 1.7 6.1 0.00 0.00 0.00 78 1013.9
20260507110853 64 0 0.9 6.1 0.00 0.00 0.00 78 1013.9
20260507110753 64 315 0.9 6.1 0.00 0.00 0.00 78 1013.9
20260507110653 64 90 1.7 6.1 0.00 0.00 0.00 78 1013.8
20260507110553 64 90 1.7 6.1 0.00 0.00 0.00 78 1013.8
20260507110453 64 45 0.9 6.1 0.00 0.00 0.00 78 1013.9
20260507110353 64 45 0.0 6.1 0.00 0.00 0.00 79 1013.8
20260507110253 64 45 1.7 6.1 0.00 0.00 0.00 78 1013.8
20260507110153 64 45 2.6 6.1 0.00 0.00 0.00 78 1013.9
20260507110053 64 90 2.6 6.1 0.00 0.00 0.00 79 1013.7
20260507105953 64 0 1.7 5.2 0.00 0.00 0.00 79 1013.7
20260507105853 64 0 1.7 5.2 0.00 0.00 0.00 79 1013.8
20260507105753 64 180 1.7 6.1 0.00 0.00 0.00 78 1013.8
20260507105653 64 90 1.7 6.1 0.00 0.00 0.00 78 1013.7
20260507105553 64 90 1.7 6.1 0.00 0.00 0.00 78 1013.7
20260507105453 64 90 1.7 6.1 0.00 0.00 0.00 78 1013.8
20260507105353 64 0 1.7 6.1 0.00 0.00 0.00 78 1013.7
20260507105253 64 45 1.7 6.1 0.00 0.00 0.00 78 1013.6
20260507105153 64 180 1.7 6.1 0.00 0.00 0.00 78 1013.7
20260507105053 64 90 2.6 6.1 0.00 0.00 0.00 78 1013.6
20260507104953 64 45 2.6 6.1 0.00 0.00 0.00 78 1013.5
20260507104853 64 45 1.7 6.1 0.00 0.00 0.00 78 1013.4
20260507104753 64 180 1.7 5.2 0.00 0.00 0.00 78 1013.4
20260507104653 64 0 0.9 5.2 0.00 0.00 0.00 78 1013.5
20260507104552 64 1 5.2 0.0 0.00 0.00 0.00 78 1013.5
20260507104453 64 90 0.9 5.2 0.00 0.00 0.00 78 1013.4
20260507104353 64 90 0.9 7.0 0.00 0.00 0.00 78 1013.4
20260507104253 64 0 0.9 7.0 0.00 0.00 0.00 78 1013.6
20260507104153 64 45 1.7 7.0 0.00 0.00 0.00 78 1013.4
20260507104052 64 45 1.7 7.0 0.00 0.00 0.00 78 1013.5
20260507103953 64 90 1.7 7.0 0.00 0.00 0.00 78 1013.4
20260507103853 64 45 1.7 7.0 0.00 0.00 0.00 78 1013.3
20260507103753 64 45 1.7 7.0 0.00 0.00 0.00 78 1013.2
20260507103653 64 90 1.7 7.0 0.00 0.00 0.00 78 1013.1
20260507103553 64 0 2.6 7.0 0.00 0.00 0.00 78 1013.1
20260507103353 64 0 2.6 5.2 0.00 0.00 0.00 78 1013.1
20260507103252 64 90 2.6 5.2 0.00 0.00 0.00 78 1013.3
20260507103153 65 90 2.6 5.2 0.00 0.00 0.00 79 1013.1
20260507103053 65 0 2.6 5.2 0.00 0.00 0.00 79 1013.1
20260507102953 64 90 2.6 5.2 0.00 0.00 0.00 79 1013.1
20260507102853 65 45 1.7 5.2 0.00 0.00 0.00 79 1013.1
20260507102753 65 90 0.9 5.2 0.00 0.00 0.00 79 1013.1
20260507102552 65 45 0.9 5.2 0.00 0.00 0.00 79 1013.0
20260507102452 65 0 1.7 5.2 0.00 0.00 0.00 78 1013.1
20260507102353 65 90 0.9 5.2 0.00 0.00 0.00 78 1013.1
20260507102253 65 90 1.7 5.2 0.00 0.00 0.00 78 1013.0
20260507102153 65 0 2.6 5.2 0.00 0.00 0.00 78 1012.9
20260507102053 65 45 0.9 5.2 0.00 0.00 0.00 78 1012.9
20260507101953 65 45 0.9 4.3 0.00 0.00 0.00 78 1013.0
20260507101852 65 45 0.0 4.3 0.00 0.00 0.00 78 1013.0
20260507101752 65 45 0.0 4.3 0.00 0.00 0.00 78 1013.0
20260507101652 65 180 0.9 4.3 0.00 0.00 0.00 78 1013.0
20260507101553 65 180 0.9 4.3 0.00 0.00 0.00 78 1013.0
20260507101453 65 45 1.7 4.3 0.00 0.00 0.00 77 1013.0
20260507101353 65 0 0.9 7.0 0.00 0.00 0.00 77 1013.0
20260507101253 65 0 0.0 7.0 0.00 0.00 0.00 77 1012.9
20260507101153 65 45 0.0 7.0 0.00 0.00 0.00 77 1013.1
20260507101052 66 315 0.9 7.0 0.00 0.00 0.00 77 1013.0
20260507100952 66 45 0.9 7.0 0.00 0.00 0.00 76 1013.0
20260507100852 66 90 0.9 7.0 0.00 0.00 0.00 76 1012.9
20260507100753 66 0 0.9 7.0 0.00 0.00 0.00 76 1013.0
20260507100653 66 45 1.7 7.0 0.00 0.00 0.00 76 1012.9
20260507100553 66 0 2.6 7.0 0.00 0.00 0.00 75 1012.8
20260507100453 66 90 2.6 7.0 0.00 0.00 0.00 75 1012.7
20260507100353 66 90 2.6 6.1 0.00 0.00 0.00 74 1012.7
20260507100252 66 45 1.7 5.2 0.00 0.00 0.00 74 1012.8
20260507100152 66 45 0.9 5.2 0.00 0.00 0.00 74 1012.7
20260507100053 67 0 1.7 5.2 0.00 0.00 0.00 73 1012.8
20260507095953 67 0 2.6 5.2 0.00 0.00 0.00 73 1012.7
20260507095853 67 0 2.6 5.2 0.00 0.00 0.00 72 1012.6
20260507095753 67 90 1.7 4.3 0.00 0.00 0.00 71 1012.6
20260507095653 66 90 0.0 3.5 0.00 0.00 0.00 71 1012.6
20260507095553 66 0 0.0 3.5 0.00 0.00 0.00 71 1012.6
20260507095452 66 180 0.0 3.5 0.00 0.00 0.00 71 1012.6
20260507095352 66 45 0.0 3.5 0.00 0.00 0.00 72 1012.5
20260507095252 66 180 0.0 3.5 0.00 0.00 0.00 72 1012.6
20260507095152 66 90 0.9 3.5 0.00 0.00 0.00 72 1012.5
20260507095053 66 180 0.9 3.5 0.00 0.00 0.00 72 1012.6
20260507094953 66 45 1.7 3.5 0.00 0.00 0.00 73 1012.6
20260507094853 66 45 0.9 3.5 0.00 0.00 0.00 73 1012.5
20260507094753 66 90 0.0 2.6 0.00 0.00 0.00 74 1012.6
20260507094652 66 0 0.0 2.6 0.00 0.00 0.00 74 1012.4
20260507094552 66 180 0.0 3.5 0.00 0.00 0.00 74 1012.5
20260507094452 66 90 0.0 3.5 0.00 0.00 0.00 75 1012.4
20260507094352 66 90 0.0 3.5 0.00 0.00 0.00 75 1012.4
20260507094253 66 90 0.9 3.5 0.00 0.00 0.00 76 1012.5
20260507094153 66 180 0.9 3.5 0.00 0.00 0.00 76 1012.4
20260507094052 66 90 0.9 3.5 0.00 0.00 0.00 76 1012.4
20260507093952 66 180 0.0 4.3 0.00 0.00 0.00 77 1012.3
20260507093852 66 180 0.0 4.3 0.00 0.00 0.00 77 1012.4
20260507093752 66 45 0.0 4.3 0.00 0.00 0.00 77 1012.5
20260507093652 66 90 0.9 4.3 0.00 0.00 0.00 78 1012.3
20260507093552 66 45 0.0 4.3 0.00 0.00 0.00 78 1012.3
20260507093453 66 0 0.0 5.2 0.00 0.00 0.00 78 1012.3
20260507093353 66 90 0.0 5.2 0.00 0.00 0.00 78 1012.2
20260507093252 66 180 0.0 5.2 0.00 0.00 0.00 78 1012.3
20260507093152 66 1 5.2 0.0 0.00 0.00 0.00 78 1012.3
20260507093052 66 0 1.7 5.2 0.00 0.00 0.00 78 1012.4
20260507092952 66 45 0.9 5.2 0.00 0.00 0.00 78 1012.1
20260507092852 66 180 1.7 5.2 0.00 0.00 0.00 78 1012.1
20260507092752 66 90 0.9 5.2 0.00 0.00 0.00 78 1012.4
20260507092653 66 0 0.9 5.2 0.00 0.00 0.00 78 1012.2
20260507092552 66 45 1.7 5.2 0.00 0.00 0.00 78 1012.1
20260507092452 66 45 0.0 6.1 0.00 0.00 0.00 78 1012.3
20260507092352 66 180 0.0 6.1 0.00 0.00 0.00 78 1012.1
20260507092252 66 180 0.9 6.1 0.00 0.00 0.00 78 1012.1
20260507092152 66 0 0.9 6.1 0.00 0.00 0.00 78 1012.1
20260507092052 66 315 1.7 6.1 0.00 0.00 0.00 78 1012.2
20260507091952 66 45 1.7 6.1 0.00 0.00 0.00 78 1012.2
20260507091852 66 0 0.9 6.1 0.00 0.00 0.00 78 1012.0
20260507091753 66 90 0.9 6.1 0.00 0.00 0.00 78 1011.9
20260507091652 66 315 2.6 6.1 0.00 0.00 0.00 78 1012.0
20260507091552 66 45 1.7 6.1 0.00 0.00 0.00 78 1012.0
20260507091452 66 45 0.9 5.2 0.00 0.00 0.00 77 1012.1
20260507091252 66 0 1.7 6.1 0.00 0.00 0.00 77 1012.0
20260507091152 67 90 2.6 7.0 0.00 0.00 0.00 77 1012.0
20260507091052 67 45 2.6 7.0 0.00 0.00 0.00 76 1012.1
20260507090952 67 45 2.6 7.0 0.00 0.00 0.00 76 1012.0
20260507090852 67 45 1.7 7.0 0.00 0.00 0.00 76 1011.8
20260507090752 67 0 2.6 7.0 0.00 0.00 0.00 76 1012.0
20260507090652 67 45 2.6 7.0 0.00 0.00 0.00 76 1011.8
20260507090552 67 45 2.6 7.8 0.00 0.00 0.00 76 1011.9
20260507090452 68 45 1.7 7.8 0.00 0.00 0.00 76 1011.9
20260507090352 68 225 2.6 7.8 0.00 0.00 0.00 76 1011.7
20260507090252 68 45 2.6 7.8 0.00 0.00 0.00 75 1011.9
20260507090152 68 45 1.7 7.8 0.00 0.00 0.00 75 1011.7
20260507090052 68 45 2.6 7.8 0.00 0.00 0.00 75 1011.7
20260507085952 68 45 1.7 7.8 0.00 0.00 0.00 75 1011.8
20260507085852 68 45 0.9 7.8 0.00 0.00 0.00 75 1011.8
20260507085752 69 315 2.6 7.8 0.00 0.00 0.00 74 1011.7
20260507085652 69 0 2.6 7.8 0.00 0.00 0.00 74 1011.7
20260507085552 69 180 1.7 5.2 0.00 0.00 0.00 75 1011.7
20260507085452 69 90 0.9 2.6 0.00 0.00 0.00 75 1011.5
20260507085352 69 45 0.9 2.6 0.00 0.00 0.00 75 1011.5
20260507085252 69 0 2.6 0.0 0.00 0.00 0.00 75 1011.7
20260507085152 69 90 0.0 2.6 0.00 0.00 0.00 75 1011.3
20260507085052 69 90 0.0 2.6 0.00 0.00 0.00 75 1011.4
20260507084952 69 0 0.0 2.6 0.00 0.00 0.00 75 1011.5
20260507084852 69 0 0.0 2.6 0.00 0.00 0.00 75 1011.4
20260507084752 69 90 0.0 2.6 0.00 0.00 0.00 75 1011.4
20260507084652 69 0 0.0 2.6 0.00 0.00 0.00 75 1011.2
20260507084552 69 315 0.0 2.6 0.00 0.00 0.00 75 1011.4
20260507084452 69 0 0.0 2.6 0.00 0.00 0.00 75 1011.3
20260507084352 69 45 0.0 2.6 0.00 0.00 0.00 76 1011.3
20260507084252 69 45 0.9 4.3 0.00 0.00 0.00 76 1011.3
20260507084152 69 45 0.0 5.2 0.00 0.00 0.00 76 1011.2
20260507084052 69 225 0.0 5.2 0.00 0.00 0.00 75 1011.2
20260507083952 69 0 0.0 5.2 0.00 0.00 0.00 76 1011.2
20260507083852 69 0 5.2 0.0 0.00 0.00 0.00 76 1011.2
20260507083752 69 180 0.0 5.2 0.00 0.00 0.00 76 1011.1
20260507083652 69 90 0.9 5.2 0.00 0.00 0.00 76 1011.1
20260507083552 69 45 0.9 5.2 0.00 0.00 0.00 75 1011.1
20260507083452 69 0 1.7 5.2 0.00 0.00 0.00 75 1011.0
20260507083352 69 90 1.7 5.2 0.00 0.00 0.00 75 1011.2
20260507083252 69 45 1.7 6.1 0.00 0.00 0.00 75 1010.9
20260507083152 69 90 0.9 6.1 0.00 0.00 0.00 75 1011.0
20260507082952 69 180 2.6 6.1 0.00 0.00 0.00 75 1011.0
20260507082852 69 90 1.7 6.1 0.00 0.00 0.00 75 1011.0
20260507082752 69 180 0.9 6.1 0.00 0.00 0.00 75 1011.0
20260507082652 69 45 0.9 6.1 0.00 0.00 0.00 75 1011.0
20260507082552 69 0 0.9 7.8 0.00 0.00 0.00 75 1011.0
20260507082452 69 315 2.6 7.8 0.00 0.00 0.00 75 1011.0
20260507082352 69 90 1.7 7.8 0.00 0.00 0.00 75 1011.0
20260507082252 69 0 0.9 7.8 0.00 0.00 0.00 76 1011.1
20260507082152 69 45 0.9 7.8 0.00 0.00 0.00 76 1011.1
20260507082052 69 90 0.9 7.8 0.00 0.00 0.00 76 1010.9
20260507081952 69 180 2.6 7.8 0.00 0.00 0.00 76 1011.0
20260507081852 69 0 2.6 7.8 0.00 0.00 0.00 75 1011.0
20260507081752 69 90 2.6 7.8 0.00 0.00 0.00 75 1010.9
20260507081652 69 45 2.6 7.8 0.00 0.00 0.00 75 1011.0
20260507081552 69 45 2.6 5.2 0.00 0.00 0.00 75 1011.0
20260507081452 70 45 2.6 5.2 0.00 0.00 0.00 75 1010.9
20260507081352 70 90 2.6 6.1 0.00 0.00 0.00 75 1010.9
20260507081252 70 45 2.6 6.1 0.00 0.00 0.00 75 1010.9
20260507081152 70 0 2.6 6.1 0.00 0.00 0.00 75 1010.8
20260507081052 70 90 1.7 6.1 0.00 0.00 0.00 75 1010.7
20260507080952 70 90 0.9 6.1 0.00 0.00 0.00 76 1010.6
20260507080852 70 0 1.7 6.1 0.00 0.00 0.00 76 1010.6
20260507080752 70 90 1.7 6.1 0.00 0.00 0.00 76 1010.8
20260507080652 70 90 1.7 6.1 0.00 0.00 0.00 76 1010.8
20260507080552 70 0 2.6 6.1 0.00 0.00 0.00 76 1010.7
20260507080452 70 0 1.7 6.1 0.00 0.00 0.00 76 1010.6
20260507080352 70 45 1.7 6.1 0.00 0.00 0.00 76 1010.5
20260507080252 70 180 2.6 6.1 0.00 0.00 0.00 76 1010.6
20260507080152 70 45 1.7 6.1 0.00 0.00 0.00 76 1010.4
20260507080052 70 0 0.0 3.5 0.00 0.00 0.00 76 1010.3
20260507075952 70 0 0.9 3.5 0.00 0.00 0.00 76 1010.5
20260507075852 70 180 0.9 3.5 0.00 0.00 0.00 76 1010.5
20260507075752 70 180 1.7 3.5 0.00 0.00 0.00 76 1010.4
20260507075652 70 180 0.9 3.5 0.00 0.00 0.00 76 1010.4
20260507075552 70 45 0.9 3.5 0.00 0.00 0.00 76 1010.5
20260507075452 70 180 1.7 6.1 0.00 0.00 0.00 76 1010.4
20260507075352 71 315 1.7 6.1 0.00 0.00 0.00 76 1010.3
20260507075252 71 90 1.7 6.1 0.00 0.00 0.00 76 1010.4
20260507075152 71 45 1.7 6.1 0.00 0.00 0.00 76 1010.4
20260507075052 71 45 1.7 6.1 0.00 0.00 0.00 76 1010.2
20260507074952 71 90 1.7 6.1 0.00 0.00 0.00 76 1010.3
20260507074852 71 90 0.9 6.1 0.00 0.00 0.00 76 1010.3
20260507074752 71 315 0.9 6.1 0.00 0.00 0.00 76 1010.5
20260507074652 71 45 1.7 6.1 0.00 0.00 0.00 76 1010.3
20260507074552 71 45 1.7 6.1 0.00 0.00 0.00 76 1010.4
20260507074452 71 45 0.9 5.2 0.00 0.00 0.00 76 1010.3
20260507074352 71 90 0.0 5.2 0.00 0.00 0.00 76 1010.2
20260507074252 71 90 0.9 7.8 0.00 0.00 0.00 76 1010.3
20260507074152 71 180 1.7 7.8 0.00 0.00 0.00 76 1010.2
20260507074052 71 0 1.7 7.8 0.00 0.00 0.00 76 1010.2
20260507073952 71 0 1.7 7.8 0.00 0.00 0.00 76 1010.2
20260507073852 71 0 1.7 7.8 0.00 0.00 0.00 76 1010.3
20260507073752 71 45 1.7 7.8 0.00 0.00 0.00 76 1010.1
20260507073652 71 90 1.7 7.8 0.00 0.00 0.00 76 1010.2
20260507073552 71 0 2.6 7.8 0.00 0.00 0.00 76 1010.1
20260507073452 71 45 2.6 7.8 0.00 0.00 0.00 76 1010.3
20260507073352 71 45 2.6 7.8 0.00 0.00 0.00 76 1010.1
20260507073252 71 90 1.7 7.8 0.00 0.00 0.00 76 1010.1
20260507073151 0 101 26.1 0.0 0.00 0.00 0.00
20260507073052 71 180 2.6 7.0 0.00 0.00 0.00 77 1010.1
20260507072952 71 45 1.7 7.0 0.00 0.00 0.00 77 1010.1
20260507072852 71 315 0.9 7.0 0.00 0.00 0.00 77 1010.2
20260507072751 71 90 0.9 7.0 0.00 0.00 0.00 77 1010.1
20260507072652 71 45 1.7 7.0 0.00 0.00 0.00 77 1010.0
20260507072552 71 0 2.6 7.0 0.00 0.00 0.00 76 1010.3
20260507072452 71 45 2.6 7.0 0.00 0.00 0.00 77 1010.2
20260507072352 71 180 1.7 7.0 0.00 0.00 0.00 77 1010.1
20260507072252 71 0 1.7 5.2 0.00 0.00 0.00 77 1010.3
20260507072152 71 45 1.7 5.2 0.00 0.00 0.00 77 1010.2
20260507072052 71 0 1.7 7.0 0.00 0.00 0.00 77 1010.3
20260507071952 71 0 1.7 7.0 0.00 0.00 0.00 77 1010.2
20260507071852 71 45 2.6 7.0 0.00 0.00 0.00 77 1010.3
20260507071752 72 45 2.6 7.0 0.00 0.00 0.00 77 1010.3
20260507071652 72 45 2.6 7.0 0.00 0.00 0.00 77 1010.2
20260507071552 72 45 2.6 7.0 0.00 0.00 0.00 77 1010.0
20260507071452 72 45 2.6 7.0 0.00 0.00 0.00 77 1010.2
20260507071352 72 0 2.6 7.0 0.00 0.00 0.00 77 1010.2
20260507071252 72 45 2.6 7.0 0.00 0.00 0.00 77 1010.2
20260507071152 72 90 2.6 7.0 0.00 0.00 0.00 77 1010.2
20260507071052 72 45 2.6 7.0 0.00 0.00 0.00 77 1010.2
20260507070952 72 90 1.7 6.1 0.00 0.00 0.00 77 1010.2
20260507070852 72 180 1.7 7.0 0.00 0.00 0.00 77 1010.2
20260507070752 72 0 1.7 7.0 0.00 0.00 0.00 77 1010.2
20260507070652 72 90 0.9 7.0 0.00 0.00 0.00 77 1010.2
20260507070552 72 0 0.0 7.0 0.00 0.00 0.00 77 1010.2
20260507070452 72 90 0.0 7.0 0.00 0.00 0.00 77 1010.2
20260507070352 72 90 0.9 7.0 0.00 0.00 0.00 77 1010.2
20260507070252 73 90 0.9 7.0 0.00 0.00 0.00 77 1010.1
20260507070151 73 45 0.9 7.0 0.00 0.00 0.00 76 1010.0
20260507070052 73 45 2.6 7.0 0.00 0.00 0.00 76 1009.9
20260507065952 73 45 3.5 7.0 0.00 0.00 0.00 76 1010.0
20260507065852 73 45 2.6 7.0 0.00 0.00 0.00 76 1009.9
20260507065752 73 0 0.9 7.0 0.00 0.00 0.00 76 1010.1
20260507065652 73 225 2.6 7.0 0.00 0.00 0.00 75 1009.9
20260507065552 73 90 2.6 7.0 0.00 0.00 0.00 75 1010.1
20260507065452 73 45 2.6 7.0 0.00 0.00 0.00 75 1009.7
20260507065352 73 90 2.6 7.0 0.00 0.00 0.00 75 1009.8
20260507065252 73 0 2.6 7.0 0.00 0.00 0.00 75 1009.9
20260507065151 73 45 2.6 7.0 0.00 0.00 0.00 74 1009.9